<- Previous Day | Today | Next Day ->

All Data for 01 July 2020

 

Time A - D Temp A - D Dew Point A - D Humidity A - D Pressure A - D Wind A - D Wind Dir Gust A - D Rain Rate A - D Rain Total
00:00 13.5 12.6 94 1005.6 9.2 S 14.5 0.0 0.0
00:01 13.5 12.6 94 1005.8 11.4 S 14.5 0.0 0.0
00:02 13.5 12.6 94 1005.9 9.8 S 14.5 0.0 0.0
00:03 13.5 12.6 94 1005.7 10.7 SW 14.5 0.0 0.0
00:04 13.5 12.6 94 1005.7 10.7 S 14.5 0.0 0.0
00:05 13.5 12.6 94 1005.7 10.7 S 14.5 0.0 0.0
00:06 13.5 12.6 94 1005.7 13.0 SSW 14.5 0.0 0.0
00:07 13.5 12.6 94 1005.8 9.8 SW 14.5 0.0 0.0
00:08 13.5 12.6 94 1005.8 11.4 S 13.0 0.0 0.0
00:09 13.5 12.6 94 1006.0 10.7 S 13.0 0.0 0.0
00:10 13.5 12.6 94 1005.6 11.4 S 13.0 0.0 0.0
00:11 13.5 12.6 94 1005.8 9.2 S 13.0 0.0 0.0
00:12 13.5 12.6 94 1005.6 9.8 S 13.0 0.0 0.0
00:13 13.5 12.6 94 1005.6 9.8 WSW 13.0 0.0 0.0
00:15 13.5 12.6 94 1005.8 8.3 S 13.0 0.0 0.0
00:16 13.5 12.6 94 1005.7 9.8 W 11.4 0.0 0.0
00:17 13.5 12.6 94 1005.6 12.1 S 12.1 0.0 0.0
00:18 13.5 12.6 94 1005.5 10.7 SSW 12.1 0.0 0.0
00:19 13.5 12.6 94 1005.5 11.4 S 12.1 0.0 0.0
00:20 13.5 12.6 94 1005.5 11.4 S 12.1 0.0 0.0
00:21 13.5 12.6 94 1005.8 13.6 S 13.6 0.0 0.0
00:22 13.5 12.6 94 1005.7 13.6 SW 13.6 0.0 0.0
00:23 13.5 12.6 94 1005.8 11.4 S 13.6 0.0 0.0
00:24 13.5 12.6 94 1005.6 9.8 SW 13.6 0.0 0.0
00:25 13.5 12.6 94 1005.8 9.8 SW 13.6 0.0 0.0
00:26 13.5 12.6 94 1005.7 11.4 S 13.6 0.0 0.0
00:27 13.5 12.6 94 1005.8 13.0 SW 13.6 0.0 0.0
00:29 13.5 12.6 94 1005.7 9.8 S 13.6 0.0 0.0
00:30 13.5 12.6 94 1005.7 9.2 S 13.6 0.0 0.0
00:31 13.5 12.6 94 1005.8 13.0 SW 13.6 0.0 0.0
00:32 13.5 12.6 94 1005.6 12.1 S 13.0 0.0 0.0
00:33 13.5 12.6 94 1005.6 12.1 SW 13.0 0.0 0.0
00:34 13.5 12.6 94 1005.6 13.6 S 13.6 0.0 0.0
00:35 13.5 12.6 94 1005.5 13.6 S 13.6 0.0 0.0
00:36 13.5 12.6 94 1005.6 6.9 S 13.6 0.0 0.0
00:37 13.5 12.6 94 1005.6 10.7 S 13.6 0.0 0.0
00:38 13.5 12.6 94 1005.5 7.6 SW 13.6 0.0 0.0
00:39 13.5 12.6 94 1005.3 9.2 S 13.6 0.0 0.0
00:40 13.5 12.6 94 1005.6 9.2 S 13.6 0.0 0.0
00:41 13.5 12.6 94 1005.5 8.3 S 13.6 0.0 0.0
00:43 13.5 12.6 94 1005.5 8.3 S 13.6 0.0 0.0
00:44 13.5 12.6 94 1005.5 9.8 S 13.6 0.0 0.0
00:45 13.5 12.6 94 1005.5 7.6 SW 11.4 0.0 0.0
00:46 13.5 12.6 94 1005.6 6.9 SW 11.4 0.0 0.0
00:47 13.5 12.6 94 1005.3 8.3 SW 11.4 0.0 0.0
00:48 13.5 12.6 94 1005.4 7.6 SW 11.4 0.0 0.0
00:49 13.5 12.6 94 1005.4 7.6 S 11.4 0.0 0.0
00:50 13.5 12.6 94 1005.4 7.6 S 11.4 0.0 0.0
00:51 13.5 12.6 94 1005.5 11.4 S 11.4 0.0 0.0
00:52 13.6 12.7 94 1005.5 11.4 SW 11.4 0.0 0.0
00:53 13.6 12.7 94 1005.4 10.7 SW 11.4 0.0 0.0
00:54 13.6 12.7 94 1005.8 10.7 S 11.4 0.0 0.0
00:55 13.5 12.6 94 1005.4 9.2 S 11.4 0.0 0.0
00:56 13.5 12.6 94 1005.5 11.4 S 11.4 0.0 0.0
00:58 13.5 12.6 94 1005.5 6.0 SW 11.4 0.0 0.0
00:59 13.5 12.6 94 1005.8 8.3 S 11.4 0.0 0.0
01:00 13.5 12.6 94 1005.5 8.3 S 11.4 0.0 0.0
01:01 13.5 12.6 94 1005.6 8.3 S 11.4 0.0 0.0
01:02 13.5 12.6 94 1005.4 8.3 S 11.4 0.0 0.0
01:03 13.5 12.6 94 1005.4 8.3 S 11.4 0.0 0.0
01:04 13.5 12.6 94 1005.5 8.3 S 11.4 0.0 0.0
01:05 13.5 12.6 94 1005.4 8.3 S 11.4 0.0 0.0
01:06 13.5 12.6 94 1005.6 8.3 S 11.4 0.0 0.0
01:07 13.5 12.6 94 1005.7 8.3 S 9.8 0.0 0.0
01:08 13.5 12.6 94 1005.6 6.0 S 8.3 0.0 0.0
01:09 13.5 12.6 94 1005.4 6.9 SW 8.3 0.0 0.0
01:10 13.5 12.6 94 1005.7 6.9 S 8.3 0.0 0.0
01:11 13.5 12.6 94 1005.6 9.2 SW 9.2 0.0 0.0
01:13 13.5 12.6 94 1005.5 9.8 SW 14.5 0.0 0.0
01:14 13.5 12.6 94 1005.6 6.9 SW 14.5 0.0 0.0
01:15 13.5 12.6 94 1005.5 10.7 S 14.5 0.0 0.0
01:16 13.5 12.6 94 1005.4 8.3 W 14.5 0.0 0.0
01:17 13.5 12.6 94 1005.5 6.9 SW 14.5 0.0 0.0
01:18 13.5 12.6 94 1005.5 8.3 S 14.5 0.0 0.0
01:19 13.5 12.6 94 1005.3 8.3 SW 14.5 0.0 0.0
01:20 13.5 12.6 94 1005.5 7.6 S 14.5 0.0 0.0
01:21 13.5 12.6 94 1005.5 9.2 SW 14.5 0.0 0.0
01:22 13.5 12.6 94 1005.3 9.2 SW 10.7 0.0 0.0
01:23 13.5 12.6 94 1005.4 5.4 SW 10.7 0.0 0.0
01:24 13.5 12.6 94 1005.7 5.4 SW 10.7 0.0 0.0
01:25 13.5 12.6 94 1005.4 6.0 S 10.7 0.0 0.0
01:26 13.5 12.6 94 1005.4 6.0 S 9.2 0.0 0.0
01:28 13.5 12.6 94 1005.3 11.4 SW 11.4 0.0 0.0
01:29 13.4 12.5 94 1005.4 10.7 S 11.4 0.0 0.0
01:30 13.4 12.5 94 1005.3 9.2 SW 11.4 0.0 0.0
01:31 13.4 12.5 94 1005.3 9.2 SW 11.4 0.0 0.0
01:32 13.4 12.5 94 1005.2 8.3 SW 11.4 0.0 0.0
01:33 13.4 12.5 94 1005.2 6.9 WSW 11.4 0.0 0.0
01:34 13.4 12.5 94 1005.4 10.7 SW 11.4 0.0 0.0
01:35 13.4 12.5 94 1005.5 7.6 SW 11.4 0.0 0.0
01:36 13.4 12.5 94 1005.4 11.4 SW 11.4 0.0 0.0
01:37 13.4 12.5 94 1005.4 7.6 S 11.4 0.0 0.0
01:38 13.4 12.5 94 1005.3 7.6 SW 11.4 0.0 0.0
01:39 13.4 12.5 94 1005.4 7.6 S 11.4 0.0 0.0
01:40 13.4 12.5 94 1005.4 8.3 S 11.4 0.0 0.0
01:41 13.4 12.5 94 1005.5 8.3 S 11.4 0.0 0.0
01:42 13.4 12.5 94 1005.5 12.1 SW 12.1 0.0 0.0
01:43 13.4 12.5 94 1005.2 10.7 SE 12.1 0.0 0.0
01:44 13.4 12.5 94 1005.4 10.7 SE 12.1 0.0 0.0
01:45 13.4 12.5 94 1005.6 10.7 SE 12.1 0.0 0.0
01:46 13.4 12.5 94 1005.1 8.3 SE 12.1 0.0 0.0
01:47 13.4 12.5 94 1005.5 10.7 W 12.1 0.0 0.0
01:48 13.4 12.5 94 1005.5 11.4 SW 12.1 0.0 0.0
01:49 13.4 12.5 94 1005.3 9.8 S 12.1 0.0 0.0
01:50 13.4 12.5 94 1005.3 9.2 SW 12.1 0.0 0.0
01:52 13.4 12.5 94 1005.2 10.7 SW 11.4 0.0 0.0
01:53 13.4 12.5 94 1005.3 9.2 S 11.4 0.0 0.0
01:54 13.4 12.5 94 1005.4 9.2 S 11.4 0.0 0.0
01:55 13.4 12.5 94 1005.3 6.0 SW 11.4 0.0 0.0
01:56 13.4 12.5 94 1005.2 6.9 S 11.4 0.0 0.0
01:57 13.4 12.5 94 1005.1 6.9 S 11.4 0.0 0.0
01:58 13.4 12.5 94 1005.4 6.9 S 11.4 0.0 0.0
01:59 13.4 12.5 94 1005.3 6.0 WSW 10.7 0.0 0.0
02:00 13.4 12.5 94 1005.0 6.9 S 10.7 0.0 0.0
02:01 13.4 12.5 94 1005.1 5.4 SW 10.7 0.0 0.0
02:02 13.4 12.5 94 1005.2 7.6 SW 10.7 0.0 0.0
02:03 13.4 12.5 94 1005.1 7.6 S 9.2 0.0 0.0
02:04 13.4 12.5 94 1005.2 8.3 SW 9.2 0.0 0.0
02:06 13.4 12.5 94 1005.2 9.2 SW 9.2 0.0 0.0
02:07 13.4 12.5 94 1005.1 9.2 S 9.2 0.0 0.0
02:08 13.4 12.5 94 1005.2 8.3 S 9.2 0.0 0.0
02:09 13.4 12.5 94 1005.2 9.8 SW 9.8 0.0 0.0
02:10 13.4 12.5 94 1005.0 10.7 S 10.7 0.0 0.0
02:11 13.4 12.5 94 1005.0 10.7 S 10.7 0.0 0.0
02:12 13.4 12.5 94 1005.1 11.4 S 11.4 0.0 0.0
02:13 13.4 12.5 94 1005.1 8.3 S 11.4 0.0 0.0
02:14 13.4 12.5 94 1005.1 9.8 S 11.4 0.0 0.0
02:15 13.4 12.5 94 1005.0 10.7 SW 11.4 0.0 0.0
02:16 13.4 12.5 94 1005.0 13.6 S 13.6 0.0 0.0
02:17 13.4 12.5 94 1005.0 6.9 S 13.6 0.0 0.0
02:18 13.4 12.5 94 1005.3 6.9 SW 13.6 0.0 0.0
02:20 13.4 12.5 94 1005.2 9.2 S 13.6 0.0 0.0
02:21 13.4 12.5 94 1004.9 7.6 SW 13.6 0.0 0.0
02:22 13.4 12.5 94 1004.9 8.3 SW 13.6 0.0 0.0
02:23 13.4 12.5 94 1005.0 9.2 SW 13.6 0.0 0.0
02:24 13.4 12.5 94 1005.0 9.2 S 13.6 0.0 0.0
02:25 13.4 12.5 94 1005.0 9.2 S 13.6 0.0 0.0
02:26 13.4 12.5 94 1005.0 9.8 S 13.6 0.0 0.0
02:27 13.4 12.5 94 1004.9 9.8 S 10.7 0.0 0.0
02:28 13.4 12.5 94 1004.9 9.8 S 10.7 0.0 0.0
02:29 13.4 12.5 94 1004.9 8.3 SSW 10.7 0.0 0.0
02:30 13.4 12.5 94 1004.9 8.3 SW 10.7 0.0 0.0
02:31 13.4 12.5 94 1004.7 10.7 S 10.7 0.0 0.0
02:32 13.4 12.5 94 1005.0 7.6 S 10.7 0.0 0.0
02:34 13.5 12.6 94 1004.9 6.0 S 10.7 0.0 0.0
02:35 13.5 12.6 94 1005.1 9.8 SW 11.4 0.0 0.0
02:36 13.5 12.6 94 1004.8 9.8 SE 11.4 0.0 0.0
02:37 13.5 12.6 94 1004.8 7.6 S 11.4 0.0 0.0
02:38 13.4 12.5 94 1005.0 7.6 S 11.4 0.0 0.0
02:39 13.5 12.6 94 1004.9 6.9 S 11.4 0.0 0.0
02:40 13.5 12.6 94 1005.0 8.3 SW 11.4 0.0 0.0
02:41 13.5 12.6 94 1005.0 10.7 SW 11.4 0.0 0.0
02:42 13.5 12.6 94 1004.8 9.8 S 11.4 0.0 0.0
02:43 13.4 12.5 94 1005.0 8.3 S 11.4 0.0 0.0
02:44 13.5 12.6 94 1005.0 8.3 S 11.4 0.0 0.0
02:45 13.4 12.5 94 1005.0 9.2 SW 11.4 0.0 0.0
02:46 13.5 12.6 94 1005.0 10.7 SW 10.7 0.0 0.0
02:48 13.5 12.6 94 1005.0 9.2 S 10.7 0.0 0.0
02:49 13.5 12.6 94 1004.9 6.9 S 10.7 0.0 0.0
02:50 13.5 12.6 94 1005.0 9.8 SE 10.7 0.0 0.0
02:51 13.5 12.6 94 1005.0 9.8 S 10.7 0.0 0.0
02:52 13.4 12.5 94 1005.0 9.8 SW 10.7 0.0 0.0
02:53 13.4 12.5 94 1005.0 7.6 S 10.7 0.0 0.0
02:54 13.5 12.6 94 1004.9 7.6 SW 10.7 0.0 0.0
02:55 13.5 12.6 94 1005.0 6.9 SW 10.7 0.0 0.0
02:56 13.4 12.5 94 1005.0 6.0 S 10.7 0.0 0.0
02:57 13.4 12.5 94 1005.1 8.3 S 10.7 0.0 0.0
02:58 13.5 12.6 94 1004.9 9.2 SW 9.8 0.0 0.0
02:59 13.5 12.6 94 1004.9 10.7 SW 10.7 0.0 0.0
03:00 13.5 12.6 94 1004.9 9.8 S 10.7 0.0 0.0
03:02 13.5 12.6 94 1004.8 9.8 S 10.7 0.0 0.0
03:03 13.5 12.6 94 1004.9 9.8 S 10.7 0.0 0.0
03:04 13.5 12.6 94 1004.7 9.8 S 10.7 0.0 0.0
03:05 13.5 12.6 94 1004.8 9.8 S 10.7 0.0 0.0
03:06 13.5 12.6 94 1004.9 9.8 S 10.7 0.0 0.0
03:07 13.5 12.6 94 1004.9 10.7 S 10.7 0.0 0.0
03:08 13.5 12.6 94 1005.0 10.7 S 10.7 0.0 0.0
03:09 13.5 12.6 94 1005.0 7.6 S 10.7 0.0 0.0
03:10 13.5 12.6 94 1004.8 7.6 S 10.7 0.0 0.0
03:11 13.5 12.6 94 1004.8 8.3 SW 10.7 0.0 0.0
03:12 13.5 12.6 94 1004.9 8.3 SE 10.7 0.0 0.0
03:13 13.5 12.6 94 1004.9 6.9 SW 10.7 0.0 0.0
03:14 13.5 12.6 94 1004.8 7.6 SW 10.7 0.0 0.0
03:16 13.5 12.6 94 1004.7 10.7 SW 10.7 0.0 0.0
03:17 13.5 12.6 94 1004.9 9.2 S 10.7 0.0 0.0
03:18 13.5 12.6 94 1004.8 7.6 SW 10.7 0.0 0.0
03:19 13.5 12.6 94 1004.8 8.3 SW 10.7 0.0 0.0
03:20 13.5 12.6 94 1004.8 11.4 S 11.4 0.0 0.0
03:21 13.5 12.6 94 1004.6 9.8 SW 11.4 0.0 0.0
03:22 13.5 12.6 94 1004.7 9.8 WSW 11.4 0.0 0.0
03:23 13.5 12.6 94 1004.7 9.2 S 11.4 0.0 0.0
03:24 13.5 12.6 94 1004.9 9.2 S 11.4 0.0 0.0
03:25 13.5 12.6 94 1004.8 6.9 SW 11.4 0.0 0.0
03:26 13.5 12.6 94 1004.7 9.8 S 11.4 0.0 0.0
03:27 13.5 12.6 94 1004.8 9.8 S 11.4 0.0 0.0
03:28 13.5 12.6 94 1004.7 9.8 S 11.4 0.0 0.0
03:30 13.5 12.6 94 1004.9 6.9 S 11.4 0.0 0.0
03:31 13.5 12.6 94 1004.9 6.9 S 9.8 0.0 0.0
03:32 13.5 12.6 94 1004.8 9.8 S 9.8 0.0 0.0
03:33 13.5 12.6 94 1005.0 6.9 SW 9.8 0.0 0.0
03:34 13.5 12.6 94 1004.6 6.9 N 9.8 0.0 0.0
03:35 13.5 12.6 94 1004.9 8.3 S 9.8 0.0 0.0
03:36 13.5 12.6 94 1004.8 9.2 S 9.8 0.0 0.0
03:37 13.5 12.6 94 1004.7 8.3 S 9.8 0.0 0.0
03:38 13.5 12.6 94 1004.6 10.7 S 10.7 0.0 0.0
03:39 13.5 12.6 94 1004.8 9.2 S 10.7 0.0 0.0
03:40 13.5 12.6 94 1004.6 11.4 SW 11.4 0.0 0.0
03:41 13.5 12.6 94 1004.7 8.3 S 11.4 0.0 0.0
03:42 13.5 12.6 94 1004.9 9.2 SW 11.4 0.0 0.0
03:44 13.5 12.6 94 1004.7 8.3 SW 11.4 0.0 0.0
03:45 13.5 12.6 94 1004.8 8.3 SW 11.4 0.0 0.0
03:46 13.5 12.6 94 1004.8 9.2 S 11.4 0.0 0.0
03:47 13.6 12.7 94 1004.9 6.0 S 11.4 0.0 0.0
03:48 13.6 12.7 94 1004.7 8.3 SW 11.4 0.0 0.0
03:49 13.6 12.7 94 1004.8 9.2 WSW 11.4 0.0 0.0
03:50 13.6 12.7 94 1004.8 8.3 SW 9.2 0.0 0.0
03:51 13.6 12.7 94 1004.7 7.6 S 9.2 0.0 0.0
03:52 13.6 12.7 94 1004.7 7.6 S 9.2 0.0 0.0
03:53 13.6 12.7 94 1004.7 5.4 SW 9.2 0.0 0.0
03:54 13.6 12.7 94 1004.7 5.4 S 9.2 0.0 0.0
03:55 13.6 12.7 94 1004.6 5.4 S 9.2 0.0 0.0
03:56 13.6 12.7 94 1004.6 6.9 SW 9.2 0.0 0.0
03:58 13.6 12.7 94 1004.4 8.3 SE 9.8 0.0 0.0
03:59 13.6 12.7 94 1004.6 11.4 SW 11.4 0.0 0.0
04:00 13.6 12.7 94 1004.9 9.2 SW 11.4 0.0 0.0
04:01 13.6 12.7 94 1004.5 13.0 S 13.0 0.0 0.0
04:02 13.6 12.7 94 1004.8 9.2 SW 13.0 0.0 0.0
04:03 13.6 12.7 94 1004.5 9.8 W 13.0 0.0 0.0
04:04 13.6 12.7 94 1004.6 8.3 S 13.0 0.0 0.0
04:05 13.6 12.7 94 1004.8 8.3 SW 13.0 0.0 0.0
04:06 13.6 12.7 94 1004.6 8.3 SW 13.0 0.0 0.0
04:07 13.6 12.7 94 1004.6 6.0 S 13.0 0.0 0.0
04:08 13.6 12.7 94 1004.8 8.3 SW 13.0 0.0 0.0
04:09 13.6 12.7 94 1004.7 9.8 SW 13.0 0.0 0.0
04:10 13.6 12.7 94 1004.8 9.2 SW 13.0 0.0 0.0
04:12 13.6 12.8 95 1004.5 7.6 SW 9.8 0.0 0.0
04:13 13.6 12.8 95 1004.7 7.6 SW 9.8 0.0 0.0
04:14 13.6 12.8 95 1004.5 6.0 SW 9.8 0.0 0.0
04:15 13.6 12.8 95 1004.6 8.3 SW 9.8 0.0 0.0
04:16 13.6 12.8 95 1004.6 7.6 SW 9.8 0.0 0.0
04:17 13.6 12.8 95 1004.6 8.3 WSW 9.8 0.0 0.0
04:18 13.6 12.8 95 1004.7 6.9 SW 9.8 0.0 0.0
04:19 13.6 12.8 95 1004.6 5.4 S 9.2 0.0 0.0
04:20 13.6 12.8 95 1004.6 5.4 S 9.2 0.0 0.0
04:21 13.6 12.8 95 1004.8 6.9 S 9.2 0.0 0.0
04:22 13.6 12.8 95 1004.4 9.8 S 9.8 0.0 0.0
04:23 13.6 12.8 95 1004.6 9.8 S 9.8 0.0 0.0
04:24 13.6 12.8 95 1004.5 7.6 SW 9.8 0.0 0.0
04:25 13.6 12.8 95 1004.6 9.8 S 9.8 0.0 0.0
04:26 13.6 12.8 95 1004.3 8.3 S 9.8 0.0 0.0
04:27 13.6 12.8 95 1004.7 8.3 S 9.8 0.0 0.0
04:29 13.6 12.8 95 1004.6 12.1 SW 12.1 0.0 0.0
04:30 13.6 12.8 95 1004.7 12.1 SW 12.1 0.0 0.0
04:31 13.6 12.8 95 1004.6 8.3 S 12.1 0.0 0.0
04:32 13.6 12.8 95 1004.6 8.3 S 12.1 0.0 0.0
04:33 13.6 12.8 95 1004.5 7.6 S 12.1 0.0 0.0
04:34 13.6 12.8 95 1004.5 8.3 SW 12.1 0.0 0.0
04:35 13.6 12.8 95 1004.3 8.3 S 12.1 0.0 0.0
04:36 13.6 12.8 95 1004.6 8.3 SW 12.1 0.0 0.0
04:37 13.6 12.8 95 1004.5 6.0 WSW 12.1 0.0 0.0
04:38 13.6 12.8 95 1004.4 6.0 SW 12.1 0.0 0.0
04:39 13.6 12.8 95 1004.4 9.2 SW 12.1 0.0 0.0
04:40 13.6 12.8 95 1004.6 8.3 S 12.1 0.0 0.0
04:41 13.6 12.8 95 1004.6 6.0 SW 9.2 0.0 0.0
04:42 13.6 12.8 95 1004.6 5.4 S 9.2 0.0 0.0
04:43 13.6 12.8 95 1004.6 9.2 S 9.2 0.0 0.0
04:45 13.6 12.8 95 1004.6 7.6 S 9.2 0.0 0.0
04:46 13.6 12.8 95 1004.4 6.9 SW 9.2 0.0 0.0
04:47 13.6 12.8 95 1004.7 9.8 WSW 9.8 0.0 0.0
04:48 13.6 12.8 95 1004.6 8.3 SW 9.8 0.0 0.0
04:49 13.6 12.8 95 1004.4 6.9 S 9.8 0.0 0.0
04:50 13.6 12.8 95 1004.6 13.0 S 13.0 0.0 0.0
04:51 13.6 12.8 95 1004.7 13.0 SW 13.0 0.0 0.0
04:52 13.6 12.8 95 1004.8 9.2 S 13.0 0.0 0.0
04:53 13.6 12.8 95 1004.5 8.3 SW 13.0 0.0 0.0
04:54 13.6 12.8 95 1004.6 6.0 SW 13.0 0.0 0.0
04:55 13.6 12.8 95 1004.6 5.4 S 13.0 0.0 0.0
04:56 13.6 12.8 95 1004.4 8.3 SW 13.0 0.0 0.0
04:57 13.7 12.9 95 1004.6 7.6 S 13.0 0.0 0.0
04:59 13.7 12.9 95 1004.7 7.6 SSW 13.0 0.0 0.0
05:00 13.7 12.9 95 1004.6 7.6 SSW 13.0 0.0 0.0
05:01 13.7 12.9 95 1004.6 7.6 SSW 9.2 0.0 0.0
05:02 13.7 12.9 95 1004.6 7.6 SSW 8.3 0.0 0.0
05:03 13.7 12.9 95 1004.7 7.6 SSW 8.3 0.0 0.0
05:04 13.7 12.9 95 1004.7 7.6 SSW 8.3 0.0 0.0
05:05 13.7 12.9 95 1004.5 7.6 SSW 8.3 0.0 0.0
05:06 13.7 12.9 95 1004.4 7.6 SSW 7.6 0.0 0.0
05:07 13.7 12.9 95 1004.6 7.6 SSW 7.6 0.0 0.0
05:08 13.7 12.9 95 1004.5 7.6 SSW 7.6 0.0 0.0
05:09 13.7 12.9 95 1004.5 9.2 S 9.2 0.0 0.0
05:10 13.6 12.8 95 1004.5 7.6 SE 9.2 0.0 0.0
05:11 13.6 12.8 95 1004.6 6.9 SW 9.2 0.0 0.0
05:13 13.6 12.8 95 1004.5 10.7 W 10.7 0.0 0.0
05:14 13.6 12.8 95 1004.6 6.9 SW 10.7 0.0 0.0
05:15 13.6 12.8 95 1004.5 7.6 SW 10.7 0.0 0.0
05:16 13.6 12.8 95 1004.8 6.0 SW 10.7 0.0 0.0
05:17 13.6 12.8 95 1004.8 6.0 S 10.7 0.0 0.0
05:18 13.6 12.8 95 1004.6 6.0 S 10.7 0.0 0.0
05:19 13.6 12.8 95 1004.6 9.2 SSW 10.7 0.0 0.0
05:20 13.6 12.8 95 1004.6 11.4 S 11.4 0.0 0.0
05:21 13.6 12.8 95 1004.8 8.3 SW 11.4 0.0 0.0
05:22 13.6 12.8 95 1004.6 8.3 SW 11.4 0.0 0.0
05:23 13.6 12.8 95 1004.6 6.9 S 11.4 0.0 0.0
05:24 13.6 12.8 95 1004.5 6.9 S 11.4 0.0 0.0
05:25 13.6 12.8 95 1004.6 9.2 S 11.4 0.0 0.0
05:27 13.6 12.8 95 1004.6 7.6 S 11.4 0.0 0.0
05:28 13.6 12.8 95 1004.7 8.3 S 11.4 0.0 0.0
05:29 13.6 12.8 95 1004.7 8.3 S 11.4 0.0 0.0
05:30 13.6 12.8 95 1004.6 8.3 S 11.4 0.0 0.0
05:31 13.6 12.8 95 1004.6 8.3 S 11.4 0.0 0.0
05:32 13.6 12.8 95 1004.6 8.3 S 11.4 0.0 0.0
05:33 13.7 12.9 95 1004.6 6.9 W 11.4 0.0 0.0
05:34 13.7 12.9 95 1004.8 5.4 S 11.4 0.0 0.0
05:35 13.7 12.9 95 1004.8 8.3 W 11.4 0.0 0.0
05:36 13.7 12.9 95 1004.8 8.3 W 11.4 0.0 0.0
05:37 13.7 12.9 95 1004.8 6.9 SW 11.4 0.0 0.0
05:38 13.7 12.9 95 1004.8 8.3 S 8.3 0.0 0.0
05:39 13.7 12.9 95 1004.9 9.8 S 9.8 0.0 0.0
05:41 13.7 12.9 95 1004.6 8.3 SW 9.8 0.0 0.0
05:42 13.7 12.9 95 1004.7 8.3 SSW 9.8 0.0 0.0
05:43 13.7 12.9 95 1004.6 10.7 S 10.7 0.0 0.0
05:44 13.7 12.9 95 1004.7 9.2 S 10.7 0.0 0.0
05:45 13.7 12.9 95 1004.7 6.0 SW 10.7 0.0 0.0
05:46 13.7 12.9 95 1004.7 6.0 SW 10.7 0.0 0.0
05:47 13.7 12.9 95 1004.6 9.8 S 10.7 0.0 0.0
05:48 13.7 12.9 95 1004.8 10.7 SW 10.7 0.0 0.0
05:49 13.7 12.9 95 1005.0 9.2 SE 10.7 0.0 0.0
05:50 13.7 12.9 95 1004.7 9.2 S 10.7 0.0 0.0
05:51 13.7 12.9 95 1004.7 10.7 SW 10.7 0.0 0.0
05:52 13.7 12.9 95 1004.9 9.8 SSW 10.7 0.0 0.0
05:53 13.7 12.9 95 1004.6 8.3 S 10.7 0.0 0.0
05:55 13.7 12.9 95 1004.8 9.2 WSW 10.7 0.0 0.0
05:56 13.7 12.9 95 1004.7 12.1 S 12.1 0.0 0.0
05:57 13.7 12.9 95 1004.6 12.1 SW 12.1 0.0 0.0
05:58 13.7 12.9 95 1004.6 10.7 SW 12.1 0.0 0.0
05:59 13.7 12.8 94 1004.7 12.1 S 12.1 0.0 0.0
06:00 13.7 12.8 94 1004.7 12.1 S 12.1 0.0 0.0
06:01 13.7 12.8 94 1004.8 9.2 S 12.1 0.0 0.0
06:02 13.7 12.8 94 1004.7 9.8 SW 12.1 0.0 0.0
06:03 13.7 12.8 94 1004.8 11.4 SW 12.1 0.0 0.0
06:04 13.7 12.8 94 1004.9 11.4 SW 12.1 0.0 0.0
06:05 13.7 12.8 94 1005.0 10.7 SSW 12.1 0.0 0.0
06:06 13.7 12.8 94 1005.0 12.1 SW 12.1 0.0 0.0
06:07 13.7 12.8 94 1004.8 9.2 S 12.1 0.0 0.0
06:09 13.7 12.8 94 1004.9 9.2 S 12.1 0.0 0.0
06:10 13.7 12.8 94 1004.9 9.2 SW 12.1 0.0 0.0
06:11 13.7 12.8 94 1005.0 9.2 S 12.1 0.0 0.0
06:12 13.7 12.8 94 1004.9 6.0 SW 12.1 0.0 0.0
06:13 13.7 12.8 94 1004.8 6.0 SW 12.1 0.0 0.0
06:14 13.7 12.8 94 1004.8 10.7 SW 12.1 0.0 0.0
06:15 13.7 12.8 94 1004.7 9.8 S 12.1 0.0 0.0
06:16 13.7 12.8 94 1005.0 11.4 SW 12.1 0.0 0.0
06:17 13.7 12.8 94 1005.0 12.1 S 12.1 0.0 0.0
06:18 13.7 12.8 94 1005.0 12.1 S 12.1 0.0 0.0
06:19 13.7 12.8 94 1004.9 9.8 S 12.1 0.0 0.0
06:20 13.7 12.8 94 1004.9 9.8 SW 12.1 0.0 0.0
06:21 13.7 12.8 94 1005.0 9.2 SW 12.1 0.0 0.0
06:23 13.7 12.8 94 1004.9 9.8 SW 12.1 0.0 0.0
06:24 13.7 12.8 94 1004.9 9.8 S 12.1 0.0 0.0
06:25 13.7 12.8 94 1005.1 8.3 SW 12.1 0.0 0.0
06:26 13.7 12.8 94 1004.9 7.6 SW 12.1 0.0 0.0
06:27 13.8 12.9 94 1004.9 12.1 NW 12.1 0.0 0.0
06:28 13.8 12.9 94 1004.9 12.1 NW 12.1 0.0 0.0
06:29 13.8 12.9 94 1005.1 9.2 SW 12.1 0.0 0.0
06:30 13.8 12.9 94 1005.0 9.8 S 12.1 0.0 0.0
06:31 13.8 12.9 94 1004.8 9.8 SW 12.1 0.0 0.0
06:32 13.8 12.9 94 1005.0 7.6 SW 12.1 0.0 0.0
06:33 13.8 12.9 94 1005.1 9.8 SSW 12.1 0.0 0.0
06:34 13.8 12.9 94 1005.0 9.2 S 12.1 0.0 0.0
06:35 13.8 12.9 94 1005.1 6.9 S 12.1 0.0 0.0
06:37 13.8 12.9 94 1004.8 7.6 S 12.1 0.0 0.0
06:38 13.8 12.9 94 1005.0 10.7 SW 10.7 0.0 0.0
06:39 13.8 12.9 94 1005.0 8.3 SW 10.7 0.0 0.0
06:40 13.8 12.9 94 1004.9 12.1 SW 12.1 0.0 0.0
06:41 13.8 12.9 94 1005.0 9.2 SW 12.1 0.0 0.0
06:42 13.8 12.9 94 1004.9 6.9 WSW 12.1 0.0 0.0
06:43 13.8 12.9 94 1005.2 9.2 S 12.1 0.0 0.0
06:44 13.8 12.9 94 1005.0 10.7 SW 12.1 0.0 0.0
06:45 13.8 12.9 94 1005.0 9.2 S 12.1 0.0 0.0
06:46 13.8 12.9 94 1005.0 6.9 SW 12.1 0.0 0.0
06:47 13.8 12.9 94 1005.2 7.6 SE 12.1 0.0 0.0
06:48 13.8 12.9 94 1005.1 7.6 S 12.1 0.0 0.0
06:49 13.8 12.9 94 1005.2 7.6 SW 12.1 0.0 0.0
06:51 13.8 12.9 94 1005.0 12.1 S 12.1 0.0 0.0
06:52 13.9 13.0 94 1005.2 11.4 SW 12.1 0.0 0.0
06:53 13.9 13.0 94 1005.2 11.4 S 12.1 0.0 0.0
06:54 13.9 13.0 94 1005.2 9.8 S 12.1 0.0 0.0
06:55 13.9 13.0 94 1005.0 11.4 SW 12.1 0.0 0.0
06:56 13.9 13.0 94 1005.0 11.4 SW 12.1 0.0 0.0
06:57 13.9 13.0 94 1005.1 11.4 SW 12.1 0.0 0.0
06:58 13.9 13.0 94 1004.9 11.4 SW 12.1 0.0 0.0
06:59 13.9 13.0 94 1005.4 9.2 SW 12.1 0.0 0.0
07:00 13.9 13.0 94 1005.0 9.8 S 12.1 0.0 0.0
07:01 13.9 13.0 94 1005.0 9.8 S 12.1 0.0 0.0
07:02 13.9 13.0 94 1005.3 9.8 S 11.4 0.0 0.0
07:03 13.9 13.0 94 1005.1 9.8 S 11.4 0.0 0.0
07:05 13.9 13.0 94 1005.1 9.8 S 11.4 0.0 0.0
07:06 13.9 13.0 94 1005.1 9.8 SW 11.4 0.0 0.0
07:07 13.9 13.0 94 1005.4 6.9 S 11.4 0.0 0.0
07:08 13.9 13.0 94 1005.1 8.3 S 9.8 0.0 0.0
07:09 13.9 13.0 94 1005.2 6.9 S 9.8 0.0 0.0
07:10 13.9 13.0 94 1005.1 6.9 SW 9.8 0.0 0.0
07:11 13.9 13.0 94 1005.3 6.9 SW 9.8 0.0 0.0
07:12 13.9 13.0 94 1005.1 7.6 SW 9.8 0.0 0.0
07:13 13.9 13.0 94 1005.0 11.4 S 11.4 0.0 0.0
07:14 13.9 13.0 94 1005.2 7.6 SW 11.4 0.0 0.0
07:15 13.9 13.0 94 1005.3 7.6 SW 11.4 0.0 0.0
07:16 13.9 13.0 94 1005.3 8.3 S 11.4 0.0 0.0
07:17 13.9 13.0 94 1005.3 9.8 SW 11.4 0.0 0.0
07:19 14.0 13.1 94 1005.3 9.2 SW 11.4 0.0 0.0
07:20 14.0 13.1 94 1005.3 9.2 S 11.4 0.0 0.0
07:21 14.0 13.1 94 1005.2 9.2 NW 11.4 0.0 0.0
07:22 14.0 13.1 94 1005.2 9.2 S 11.4 0.0 0.0
07:23 14.0 13.1 94 1005.5 9.2 SW 11.4 0.0 0.0
07:24 14.0 13.1 94 1005.5 9.2 SW 9.8 0.0 0.0
07:25 14.0 13.1 94 1005.3 9.2 SW 9.8 0.0 0.0
07:26 14.0 13.1 94 1005.2 9.2 S 10.7 0.0 0.0
07:27 14.0 13.1 94 1005.2 10.7 SW 10.7 0.0 0.0
07:28 14.0 13.1 94 1005.1 9.8 S 10.7 0.0 0.0
07:29 14.1 13.2 94 1005.3 6.9 SW 10.7 0.0 0.0
07:30 14.1 13.2 94 1005.3 8.3 S 10.7 0.0 0.0
07:31 14.1 13.2 94 1005.4 8.3 S 10.7 0.0 0.0
07:33 14.1 13.2 94 1005.4 10.7 SW 10.7 0.0 0.0
07:34 14.1 13.2 94 1005.3 10.7 SE 10.7 0.0 0.0
07:35 14.2 13.3 94 1005.3 9.2 S 10.7 0.0 0.0
07:36 14.2 13.3 94 1005.5 9.8 SW 10.7 0.0 0.0
07:37 14.2 13.3 94 1005.3 13.6 S 13.6 0.0 0.0
07:38 14.2 13.3 94 1005.3 9.8 SW 13.6 0.0 0.0
07:39 14.2 13.3 94 1005.4 9.2 S 13.6 0.0 0.0
07:40 14.2 13.3 94 1005.4 8.3 S 13.6 0.0 0.0
07:41 14.2 13.3 94 1005.4 9.8 SW 13.6 0.0 0.0
07:42 14.2 13.3 94 1005.3 7.6 S 13.6 0.0 0.0
07:43 14.2 13.3 94 1005.5 9.8 S 13.6 0.0 0.0
07:44 14.2 13.3 94 1005.3 10.7 SW 13.6 0.0 0.0
07:45 14.2 13.3 94 1005.5 11.4 SW 13.6 0.0 0.0
07:46 14.2 13.3 94 1005.4 10.7 SW 13.6 0.0 0.0
07:48 14.2 13.3 94 1005.6 7.6 SW 11.4 0.0 0.0
07:49 14.2 13.3 94 1005.3 10.7 SW 11.4 0.0 0.0
07:50 14.2 13.3 94 1005.3 13.0 S 13.0 0.0 0.0
07:51 14.2 13.3 94 1005.4 11.4 SW 13.0 0.0 0.0
07:52 14.2 13.3 94 1005.5 11.4 S 13.0 0.0 0.0
07:53 14.2 13.3 94 1005.5 8.3 S 13.0 0.0 0.0
07:54 14.2 13.3 94 1005.4 10.7 SW 13.0 0.0 0.0
07:55 14.2 13.3 94 1005.6 10.7 S 13.0 0.0 0.0
07:56 14.2 13.3 94 1005.5 10.7 SW 13.0 0.0 0.0
07:57 14.2 13.3 94 1005.5 8.3 SE 13.0 0.0 0.0
07:58 14.2 13.3 94 1005.4 8.3 SSW 13.0 0.0 0.0
07:59 14.2 13.3 94 1005.6 9.8 SW 13.0 0.0 0.0
08:00 14.2 13.3 94 1005.4 13.0 S 13.0 0.0 0.0
08:02 14.2 13.3 94 1005.5 13.0 S 13.0 0.0 0.0
08:03 14.2 13.3 94 1005.5 13.0 S 13.0 0.0 0.0
08:04 14.2 13.3 94 1005.5 13.0 S 13.0 0.0 0.0
08:05 14.2 13.3 94 1005.5 13.0 S 13.0 0.0 0.0
08:06 14.2 13.3 94 1005.7 13.0 S 13.0 0.0 0.0
08:07 14.3 13.4 94 1005.5 6.9 S 13.0 0.0 0.0
08:08 14.3 13.4 94 1005.5 9.8 SW 13.0 0.0 0.0
08:09 14.3 13.4 94 1005.4 8.3 SW 13.0 0.0 0.0
08:10 14.3 13.4 94 1005.4 10.7 SW 13.0 0.0 0.0
08:11 14.3 13.4 94 1005.5 11.4 S 13.0 0.0 0.0
08:12 14.3 13.4 94 1005.4 13.0 S 13.0 0.0 0.0
08:13 14.4 13.5 94 1005.7 10.7 S 13.0 0.0 0.0
08:14 14.4 13.5 94 1005.3 10.7 SW 13.0 0.0 0.0
08:16 14.4 13.5 94 1005.5 7.6 SW 13.0 0.0 0.0
08:17 14.4 13.5 94 1005.5 8.3 S 13.0 0.0 0.0
08:18 14.4 13.5 94 1005.6 10.7 S 13.0 0.0 0.0
08:19 14.4 13.5 94 1005.5 9.2 SW 13.0 0.0 0.0
08:20 14.4 13.5 94 1005.7 11.4 S 13.0 0.0 0.0
08:21 14.4 13.5 94 1005.5 11.4 SW 13.0 0.0 0.0
08:22 14.4 13.5 94 1005.5 9.2 SW 11.4 0.0 0.0
08:23 14.4 13.5 94 1005.6 7.6 SW 11.4 0.0 0.0
08:24 14.4 13.5 94 1005.5 9.8 SW 11.4 0.0 0.0
08:25 14.4 13.5 94 1005.6 9.8 S 11.4 0.0 0.0
08:26 14.4 13.5 94 1005.6 9.8 SW 11.4 0.0 0.0
08:27 14.4 13.5 94 1005.5 9.8 S 11.4 0.0 0.0
08:29 14.4 13.5 94 1005.6 13.0 S 13.0 0.0 0.0
08:30 14.4 13.5 94 1005.7 9.2 WSW 13.0 0.0 0.0
08:31 14.4 13.5 94 1005.5 12.1 SW 13.0 0.0 0.0
08:32 14.4 13.5 94 1005.6 12.1 SW 13.0 0.0 0.0
08:33 14.4 13.5 94 1005.6 10.7 SSW 13.0 0.0 0.0
08:34 14.4 13.5 94 1005.7 9.8 SE 13.0 0.0 0.0
08:35 14.4 13.5 94 1005.6 9.8 SE 13.0 0.0 0.0
08:36 14.4 13.5 94 1005.6 10.7 SW 13.0 0.0 0.0
08:37 14.4 13.3 93 1005.7 15.2 S 15.2 0.0 0.0
08:38 14.4 13.3 93 1005.5 10.7 S 15.2 0.0 0.0
08:39 14.5 13.4 93 1005.8 9.8 SW 15.2 0.0 0.0
08:40 14.5 13.4 93 1005.5 8.3 S 15.2 0.0 0.0
08:41 14.5 13.4 93 1005.5 11.4 SE 15.2 0.0 0.0
08:42 14.5 13.4 93 1005.7 9.2 S 15.2 0.0 0.0
08:44 14.6 13.5 93 1005.8 9.2 SW 15.2 0.0 0.0
08:45 14.6 13.5 93 1005.5 9.8 SE 15.2 0.0 0.0
08:46 14.6 13.5 93 1005.8 11.4 S 15.2 0.0 0.0
08:47 14.6 13.5 93 1005.5 9.8 S 15.2 0.0 0.0
08:48 14.6 13.5 93 1005.8 8.3 S 11.4 0.0 0.0
08:49 14.7 13.6 93 1005.4 9.2 SW 11.4 0.0 0.0
08:50 14.7 13.6 93 1005.6 11.4 SW 11.4 0.0 0.0
08:51 14.7 13.6 93 1005.7 10.7 SW 11.4 0.0 0.0
08:52 14.7 13.6 93 1005.7 8.3 S 11.4 0.0 0.0
08:53 14.7 13.6 93 1005.6 10.7 SSE 11.4 0.0 0.0
08:54 14.8 13.7 93 1005.7 12.1 S 12.1 0.0 0.0
08:55 14.8 13.7 93 1005.5 13.0 SW 13.0 0.0 0.0
08:56 14.8 13.7 93 1005.8 12.1 SW 13.0 0.0 0.0
08:58 14.9 13.8 93 1005.8 11.4 SW 13.0 0.0 0.0
08:59 15.0 13.9 93 1005.8 9.8 SW 13.0 0.0 0.0
09:00 15.0 13.9 93 1005.6 9.8 SW 13.0 0.0 0.0
09:01 15.0 13.9 93 1005.8 9.8 SW 13.0 0.0 0.0
09:02 15.0 13.9 93 1005.7 9.8 SW 13.0 0.0 0.0
09:03 15.0 13.9 93 1005.7 15.9 S 15.9 0.0 0.0
09:04 15.0 13.9 93 1005.5 9.8 SW 15.9 0.0 0.0
09:05 15.0 13.9 93 1005.8 9.2 SW 15.9 0.0 0.0
09:06 15.0 13.9 93 1005.7 10.7 S 15.9 0.0 0.0
09:07 15.0 13.9 93 1005.6 10.7 S 15.9 0.0 0.0
09:08 15.0 13.9 93 1005.6 10.7 S 15.9 0.0 0.0
09:09 15.0 13.9 93 1005.7 10.7 SW 15.9 0.0 0.0
09:10 15.0 13.9 93 1005.6 9.8 SW 15.9 0.0 0.0
09:12 15.0 13.9 93 1005.8 9.8 S 15.9 0.0 0.0
09:13 15.0 13.9 93 1005.8 8.3 S 13.6 0.0 0.0
09:14 15.0 13.9 93 1005.7 8.3 S 13.6 0.0 0.0
09:15 15.0 13.9 93 1005.9 10.7 S 13.6 0.0 0.0
09:16 15.0 13.9 93 1005.8 10.7 SW 13.6 0.0 0.0
09:17 15.0 13.9 93 1005.8 10.7 SW 13.6 0.0 0.0
09:18 15.0 13.9 93 1005.7 8.3 SW 13.6 0.0 0.0
09:19 15.0 13.7 92 1005.9 10.7 SW 13.6 0.0 0.0
09:20 15.0 13.7 92 1005.7 11.4 S 13.6 0.0 0.0
09:21 15.0 13.7 92 1005.7 11.4 S 13.6 0.0 0.0
09:22 15.0 13.7 92 1005.7 13.6 S 13.6 0.0 0.0
09:23 15.0 13.7 92 1006.1 9.8 SW 13.6 0.0 0.0
09:24 15.0 13.7 92 1005.8 9.8 S 13.6 0.0 0.0
09:26 15.0 13.7 92 1005.5 11.4 SW 13.6 0.0 0.0
09:27 15.1 13.8 92 1005.8 10.7 SW 13.6 0.0 0.0
09:28 15.1 13.8 92 1005.8 11.4 SW 13.6 0.0 0.0
09:29 15.1 13.8 92 1006.0 11.4 SW 13.6 0.0 0.0
09:30 15.1 13.8 92 1005.8 7.6 SW 13.6 0.0 0.0
09:31 15.1 13.8 92 1005.8 9.2 S 13.6 0.0 0.0
09:32 15.1 13.8 92 1006.0 6.9 S 13.6 0.0 0.0
09:33 15.1 13.8 92 1005.9 9.8 S 11.4 0.0 0.0
09:34 15.1 13.8 92 1005.7 8.3 SE 11.4 0.0 0.0
09:35 15.1 13.8 92 1005.7 8.3 SW 11.4 0.0 0.0
09:36 15.1 13.8 92 1005.8 8.3 S 11.4 0.0 0.0
09:37 15.1 13.8 92 1005.9 7.6 SSE 11.4 0.0 0.0
09:38 15.1 13.6 91 1005.9 8.3 S 11.4 0.0 0.0
09:40 15.1 13.6 91 1005.8 10.7 SE 12.1 0.0 0.0
09:41 15.1 13.6 91 1005.9 10.7 SE 12.1 0.0 0.0
09:42 15.1 13.6 91 1005.9 13.0 S 13.0 0.0 0.0
09:43 15.1 13.6 91 1005.9 9.8 S 13.0 0.0 0.0
09:44 15.1 13.6 91 1005.9 11.4 SW 13.0 0.0 0.0
09:45 15.1 13.6 91 1005.9 11.4 SW 13.0 0.0 0.0
09:46 15.1 13.6 91 1005.9 12.1 SE 13.0 0.0 0.0
09:47 15.1 13.6 91 1005.7 9.8 SW 13.0 0.0 0.0
09:48 15.2 13.7 91 1006.0 9.8 S 13.0 0.0 0.0
09:49 15.2 13.7 91 1005.8 10.7 SW 13.0 0.0 0.0
09:50 15.2 13.7 91 1005.8 9.2 SW 13.0 0.0 0.0
09:51 15.2 13.7 91 1005.9 10.7 S 13.0 0.0 0.0
09:52 15.3 13.8 91 1005.9 8.3 S 13.0 0.0 0.0
09:54 15.3 13.8 91 1005.6 9.2 S 12.1 0.0 0.0
09:55 15.3 13.8 91 1005.7 12.1 S 12.1 0.0 0.0
09:56 15.3 13.8 91 1005.9 12.1 S 12.1 0.0 0.0
09:57 15.3 13.8 91 1006.0 12.1 S 12.1 0.0 0.0
09:58 15.3 13.8 91 1005.8 13.6 S 13.6 0.0 0.0
09:59 15.3 13.8 91 1005.9 10.7 S 13.6 0.0 0.0
10:00 15.4 13.9 91 1005.8 8.3 SW 13.6 0.0 0.0
10:01 15.4 13.9 91 1005.9 8.3 SW 13.6 0.0 0.0
10:02 15.4 13.9 91 1005.9 8.3 SW 13.6 0.0 0.0
10:03 15.4 13.9 91 1005.8 8.3 SW 13.6 0.0 0.0
10:04 15.4 13.9 91 1005.7 8.3 SW 13.6 0.0 0.0
10:05 15.4 13.9 91 1006.0 8.3 SW 13.6 0.0 0.0
10:06 15.5 14.0 91 1005.7 13.6 S 13.6 0.0 0.0
10:08 15.6 14.1 91 1005.9 12.1 SW 13.6 0.0 0.0
10:09 15.7 14.2 91 1005.9 9.2 S 13.6 0.0 0.0
10:10 15.8 14.3 91 1005.7 9.8 S 13.6 0.0 0.0
10:11 15.8 14.2 90 1005.9 11.4 S 13.6 0.0 0.0
10:12 15.8 14.2 90 1005.9 13.0 S 13.6 0.0 0.0
10:13 15.8 14.2 90 1005.9 13.0 S 13.6 0.0 0.0
10:14 15.8 14.2 90 1005.7 12.1 SW 13.6 0.0 0.0
10:15 15.8 14.2 90 1005.9 12.1 SW 13.6 0.0 0.0
10:16 15.7 14.1 90 1005.9 10.7 S 13.6 0.0 0.0
10:17 15.7 13.9 89 1006.0 11.4 S 13.0 0.0 0.0
10:18 15.6 13.8 89 1005.9 12.1 SW 13.0 0.0 0.0
10:19 15.6 13.8 89 1005.9 11.4 SE 13.0 0.0 0.0
10:20 15.6 13.8 89 1005.9 6.9 SE 13.0 0.0 0.0
10:22 15.6 13.8 89 1005.8 8.3 S 13.0 0.0 0.0
10:23 15.6 13.8 89 1005.8 9.8 S 12.1 0.0 0.0
10:24 15.6 13.8 89 1005.8 11.4 S 12.1 0.0 0.0
10:25 15.6 13.8 89 1005.8 11.4 S 12.1 0.0 0.0
10:26 15.6 13.8 89 1005.6 11.4 SE 12.1 0.0 0.0
10:27 15.6 13.8 89 1006.0 11.4 S 12.1 0.0 0.0
10:28 15.6 13.8 89 1005.7 11.4 SE 12.1 0.0 0.0
10:29 15.6 13.8 89 1005.9 8.3 SW 11.4 0.0 0.0
10:30 15.6 13.8 89 1005.8 11.4 S 11.4 0.0 0.0
10:31 15.6 13.8 89 1005.9 10.7 SW 11.4 0.0 0.0
10:32 15.6 13.8 89 1006.1 11.4 S 11.4 0.0 0.0
10:33 15.7 13.9 89 1005.8 9.8 S 11.4 0.0 0.0
10:34 15.7 13.9 89 1005.9 7.6 S 11.4 0.0 0.0
10:36 15.7 13.9 89 1005.9 9.8 S 11.4 0.0 0.0
10:37 15.7 13.9 89 1005.8 12.1 S 12.1 0.0 0.0
10:38 15.7 13.9 89 1006.0 13.0 S 13.0 0.0 0.0
10:39 15.6 13.8 89 1006.0 11.4 SW 13.0 0.0 0.0
10:40 15.6 13.8 89 1005.9 13.0 S 13.0 0.0 0.0
10:41 15.6 13.8 89 1005.9 10.7 S 13.0 0.0 0.0
10:42 15.7 13.9 89 1005.9 13.6 S 13.6 0.0 0.0
10:43 15.7 13.9 89 1005.9 11.4 S 13.6 0.0 0.0
10:44 15.8 14.2 90 1005.8 11.4 S 13.6 0.0 0.0
10:45 15.9 14.3 90 1005.8 11.4 SE 13.6 0.0 0.0
10:46 16.0 14.4 90 1005.8 11.4 S 13.6 0.0 0.0
10:47 16.0 14.4 90 1005.9 10.7 SW 13.6 0.0 0.0
10:48 16.0 14.2 89 1006.0 12.1 SE 13.6 0.0 0.0
10:50 16.1 14.3 89 1005.9 10.7 S 13.6 0.0 0.0
10:51 16.0 14.0 88 1005.8 10.7 SW 13.6 0.0 0.0
10:52 16.0 14.0 88 1006.0 13.0 SW 13.0 0.0 0.0
10:53 16.0 14.0 88 1005.9 13.0 S 13.0 0.0 0.0
10:54 16.0 14.0 88 1005.9 13.6 S 13.6 0.0 0.0
10:55 15.9 13.7 87 1005.9 13.6 SW 13.6 0.0 0.0
10:56 15.9 13.7 87 1006.0 13.6 S 13.6 0.0 0.0
10:57 15.8 13.6 87 1005.9 13.6 SW 13.6 0.0 0.0
10:58 15.8 13.6 87 1006.0 13.6 SW 13.6 0.0 0.0
10:59 15.7 13.5 87 1005.9 13.0 S 13.6 0.0 0.0
11:00 15.7 13.5 87 1006.0 13.0 S 13.6 0.0 0.0
11:01 15.7 13.5 87 1005.8 13.0 S 13.6 0.0 0.0
11:02 15.7 13.5 87 1006.0 13.0 S 13.6 0.0 0.0
11:04 15.7 13.5 87 1006.0 13.0 S 13.6 0.0 0.0
11:05 15.7 13.5 87 1005.8 13.0 S 13.6 0.0 0.0
11:06 15.9 13.9 88 1005.9 13.6 SW 13.6 0.0 0.0
11:07 16.0 14.2 89 1006.0 12.1 S 15.2 0.0 0.0
11:08 16.1 14.3 89 1006.0 13.0 S 15.2 0.0 0.0
11:09 16.1 14.3 89 1005.8 13.0 SW 15.2 0.0 0.0
11:10 16.1 14.3 89 1005.9 11.4 SW 15.2 0.0 0.0
11:11 16.1 14.3 89 1006.0 11.4 S 15.2 0.0 0.0
11:12 16.1 14.3 89 1006.0 11.4 S 15.2 0.0 0.0
11:13 16.2 14.2 88 1006.1 11.4 SW 15.2 0.0 0.0
11:14 16.2 14.4 89 1005.9 13.6 SSW 15.2 0.0 0.0
11:15 16.3 14.5 89 1006.1 11.4 SW 15.2 0.0 0.0
11:16 16.3 14.3 88 1006.0 11.4 SW 15.2 0.0 0.0
11:17 16.3 14.3 88 1006.2 10.7 S 15.2 0.0 0.0
11:18 16.3 14.3 88 1006.0 14.5 S 14.5 0.0 0.0
11:19 16.3 14.3 88 1006.1 10.7 SW 14.5 0.0 0.0
11:20 16.3 14.1 87 1006.0 11.4 S 14.5 0.0 0.0
11:21 16.2 14.0 87 1006.1 9.2 S 14.5 0.0 0.0
11:23 16.2 13.9 86 1006.1 9.2 SW 14.5 0.0 0.0
11:24 16.2 13.9 86 1006.2 7.6 S 14.5 0.0 0.0
11:25 16.2 13.9 86 1006.2 7.6 SW 14.5 0.0 0.0
11:26 16.2 13.9 86 1006.2 7.6 S 14.5 0.0 0.0
11:27 16.2 13.9 86 1006.3 14.5 S 14.5 0.0 0.0
11:28 16.2 13.9 86 1006.3 14.5 S 14.5 0.0 0.0
11:29 16.2 13.9 86 1006.3 10.7 S 14.5 0.0 0.0
11:30 16.2 13.9 86 1006.2 13.6 SW 14.5 0.0 0.0
11:31 16.1 13.8 86 1006.2 10.7 SW 14.5 0.0 0.0
11:32 16.1 13.6 85 1006.1 10.7 S 14.5 0.0 0.0
11:33 16.1 13.6 85 1006.0 9.2 SE 14.5 0.0 0.0
11:34 16.1 13.6 85 1006.1 8.3 SW 14.5 0.0 0.0
11:35 16.1 13.6 85 1006.2 11.4 S 14.5 0.0 0.0
11:37 16.1 13.6 85 1006.3 9.8 SW 14.5 0.0 0.0
11:38 16.1 13.6 85 1006.4 9.2 S 14.5 0.0 0.0
11:39 16.0 13.5 85 1006.1 12.1 NW 14.5 0.0 0.0
11:40 16.0 13.5 85 1006.3 14.5 S 14.5 0.0 0.0
11:41 16.0 13.5 85 1006.3 12.1 SW 14.5 0.0 0.0
11:42 16.0 13.5 85 1006.4 10.7 S 14.5 0.0 0.0
11:43 16.0 13.5 85 1006.2 13.0 S 14.5 0.0 0.0
11:44 16.0 13.5 85 1006.4 13.0 S 14.5 0.0 0.0
11:45 16.0 13.5 85 1006.3 6.9 SW 14.5 0.0 0.0
11:46 15.9 13.4 85 1006.4 13.6 SW 14.5 0.0 0.0
11:47 15.9 13.4 85 1006.3 9.2 SSW 14.5 0.0 0.0
11:48 15.9 13.4 85 1006.3 9.2 SW 14.5 0.0 0.0
11:49 15.9 13.4 85 1006.4 9.2 S 14.5 0.0 0.0
11:51 15.9 13.4 85 1006.4 13.0 S 13.6 0.0 0.0
11:52 15.9 13.4 85 1006.3 13.0 S 13.6 0.0 0.0
11:53 15.9 13.4 85 1006.2 9.2 SW 13.6 0.0 0.0
11:54 15.9 13.4 85 1006.3 10.7 S 13.6 0.0 0.0
11:55 15.9 13.4 85 1006.2 8.3 SW 13.6 0.0 0.0
11:56 15.9 13.4 85 1006.2 8.3 SW 13.6 0.0 0.0
11:57 15.9 13.4 85 1006.5 8.3 SW 13.0 0.0 0.0
11:58 15.9 13.4 85 1006.4 8.3 S 13.0 0.0 0.0
11:59 16.0 13.5 85 1006.5 8.3 SW 13.0 0.0 0.0
12:00 16.0 13.7 86 1006.4 6.9 SW 13.0 0.0 0.0
12:01 16.0 13.7 86 1006.4 6.9 SW 13.0 0.0 0.0
12:02 16.0 13.7 86 1006.5 6.9 SW 13.0 0.0 0.0
12:03 16.0 13.7 86 1006.5 6.9 SW 10.7 0.0 0.0
12:05 16.0 13.7 86 1006.3 6.9 SW 8.3 0.0 0.0
12:06 16.0 13.7 86 1006.6 12.1 NW 12.1 0.0 0.0
12:07 16.0 13.7 86 1006.4 8.3 SW 12.1 0.0 0.0
12:08 16.0 13.7 86 1006.4 5.4 WSW 12.1 0.0 0.0
12:09 16.0 13.7 86 1006.7 9.2 SW 12.1 0.0 0.0
12:10 15.9 13.4 85 1006.5 7.6 SW 12.1 2.3 0.2
12:11 15.9 13.4 85 1006.5 7.6 SW 12.1 2.3 0.2
12:12 15.9 13.4 85 1006.5 5.4 W 12.1 6.8 0.6
12:13 15.8 13.3 85 1006.6 6.9 SW 12.1 7.6 0.6
12:14 15.8 13.3 85 1006.5 8.3 NW 12.1 7.6 0.6
12:15 15.7 13.2 85 1006.6 6.9 S 12.1 5.3 0.6
12:16 15.7 13.2 85 1006.5 6.9 S 12.1 5.3 0.6
12:17 15.6 13.1 85 1006.6 9.2 W 12.1 0.8 0.6
12:19 15.6 13.1 85 1006.6 6.9 W 9.2 0.0 0.6
12:20 15.5 13.0 85 1006.5 6.9 SW 9.2 0.0 0.6
12:21 15.5 13.0 85 1006.6 11.4 W 11.4 0.0 0.6
12:22 15.5 13.2 86 1006.7 9.8 W 11.4 0.0 0.6
12:23 15.5 13.2 86 1006.4 6.9 WSW 11.4 0.0 0.6
12:24 15.6 13.3 86 1006.5 8.3 WSW 11.4 0.0 0.6
12:25 15.6 13.3 86 1006.5 8.3 WSW 11.4 0.0 0.6
12:26 15.7 13.5 87 1006.7 8.3 W 11.4 0.0 0.6
12:27 15.7 13.7 88 1006.4 6.9 SW 11.4 0.0 0.6
12:28 15.8 13.8 88 1006.5 8.3 SW 11.4 0.0 0.6
12:29 15.9 14.1 89 1006.7 4.5 SW 11.4 0.0 0.6
12:30 16.0 14.2 89 1006.7 6.0 SW 11.4 0.0 0.6
12:31 16.0 14.2 89 1006.6 7.6 SW 11.4 0.0 0.6
12:32 16.0 14.4 90 1006.6 9.8 W 9.8 0.0 0.6
12:34 16.0 14.2 89 1006.7 8.3 SSW 9.8 0.0 0.6
12:35 15.9 14.1 89 1006.7 4.5 NW 9.8 0.0 0.6
12:36 15.9 14.1 89 1006.7 12.1 SW 12.1 0.0 0.6
12:37 15.8 13.8 88 1006.5 11.4 SW 12.1 0.0 0.6
12:38 15.7 13.7 88 1006.6 12.1 NW 12.1 0.0 0.6
12:39 15.7 13.5 87 1006.8 10.7 SW 12.1 0.0 0.6
12:40 15.6 13.5 87 1006.5 10.7 W 12.1 0.0 0.6
12:41 15.5 13.2 86 1006.7 9.8 W 12.1 0.0 0.6
12:42 15.4 13.1 86 1006.6 9.8 W 12.1 0.0 0.6
12:43 15.3 13.0 86 1006.9 8.3 NW 12.1 0.0 0.6
12:44 15.3 13.0 86 1006.8 8.3 SW 12.1 0.0 0.6
12:45 15.3 12.8 85 1006.5 9.2 NW 12.1 0.0 0.6
12:46 15.3 12.8 85 1006.5 6.9 W 12.1 0.0 0.6
12:48 15.4 13.1 86 1006.8 8.3 SW 11.4 0.0 0.6
12:49 15.4 13.1 86 1006.7 7.6 W 11.4 0.0 0.6
12:50 15.5 13.2 86 1006.9 7.6 NW 11.4 0.0 0.6
12:51 15.5 13.4 87 1006.9 6.9 W 9.8 0.0 0.6
12:52 15.6 13.5 87 1006.8 5.4 W 9.2 0.0 0.6
12:53 15.6 13.5 87 1006.8 6.0 W 9.2 0.0 0.6
12:54 15.6 13.5 87 1006.9 5.4 NW 9.2 0.0 0.6
12:55 15.6 13.5 87 1006.8 7.6 SW 8.3 0.0 0.6
12:56 15.6 13.5 87 1006.9 12.1 SW 12.1 0.0 0.6
12:57 15.6 13.5 87 1006.8 9.2 W 12.1 0.0 0.6
12:58 15.5 13.2 86 1006.9 9.8 SW 12.1 0.0 0.6
12:59 15.4 13.1 86 1006.9 8.3 SW 12.1 0.0 0.6
13:00 15.4 13.1 86 1007.0 8.3 NW 12.1 0.0 0.6
13:01 15.4 13.1 86 1006.8 8.3 NW 12.1 0.0 0.6
13:02 15.4 13.1 86 1007.0 8.3 NW 12.1 0.0 0.6
13:04 15.4 13.1 86 1007.0 8.3 NW 12.1 0.0 0.6
13:05 15.4 13.1 86 1007.1 8.3 NW 12.1 0.0 0.6
13:06 15.1 12.2 83 1006.9 13.0 SW 13.0 0.0 0.6
13:07 15.1 12.2 83 1007.0 8.3 SW 13.0 0.0 0.6
13:08 15.1 12.2 83 1006.9 6.9 SW 13.0 0.0 0.6
13:09 15.2 12.3 83 1007.0 6.9 SW 13.0 0.0 0.6
13:10 15.2 12.3 83 1007.1 9.2 SW 13.0 0.0 0.6
13:11 15.3 12.6 84 1007.1 7.6 W 13.0 0.0 0.6
13:12 15.3 12.6 84 1007.1 13.0 N 13.0 0.0 0.6
13:13 15.4 12.5 83 1007.2 9.2 NW 13.0 0.0 0.6
13:14 15.5 12.6 83 1007.1 8.3 SW 13.0 0.0 0.6
13:15 15.5 12.6 83 1007.0 9.8 W 13.0 0.0 0.6
13:16 15.5 12.6 83 1007.0 9.8 SW 13.0 0.0 0.6
13:17 15.5 12.4 82 1007.2 10.7 W 13.0 0.0 0.6
13:18 15.4 12.2 81 1007.2 7.6 SW 13.0 0.0 0.6
13:19 15.4 12.2 81 1007.2 6.9 SW 13.0 0.0 0.6
13:20 15.4 12.2 81 1007.1 6.0 W 13.0 0.0 0.6
13:21 15.4 12.2 81 1006.9 9.2 SW 13.0 0.0 0.6
13:23 15.3 12.1 81 1007.2 9.8 SW 10.7 0.0 0.6
13:24 15.3 11.9 80 1007.3 6.9 SW 10.7 0.0 0.6
13:25 15.3 12.1 81 1007.3 8.3 SW 10.7 0.0 0.6
13:26 15.3 12.1 81 1007.1 8.3 W 10.7 0.0 0.6
13:27 15.3 12.1 81 1007.2 9.2 W 9.8 0.0 0.6
13:28 15.3 11.9 80 1007.3 11.4 SW 11.4 0.0 0.6
13:29 15.3 11.9 80 1007.2 11.4 SW 11.4 0.0 0.6
13:30 15.3 11.9 80 1007.1 6.9 SW 11.4 0.0 0.6
13:31 15.4 12.0 80 1007.3 6.9 W 11.4 0.0 0.6
13:32 15.4 12.0 80 1007.0 9.2 WSW 11.4 0.0 0.6
13:33 15.5 12.1 80 1007.3 7.6 SW 11.4 0.0 0.6
13:34 15.6 12.0 79 1007.0 7.6 W 11.4 0.0 0.6
13:35 15.7 12.1 79 1007.0 12.1 W 12.1 0.0 0.6
13:36 15.8 12.0 78 1007.3 12.1 W 12.1 0.0 0.6
13:37 15.9 12.1 78 1007.3 12.1 SW 12.1 0.0 0.6
13:39 16.1 12.5 79 1007.4 9.2 S 12.1 0.0 0.6
13:40 16.2 12.4 78 1007.2 9.8 SW 12.1 0.0 0.6
13:41 16.3 12.5 78 1007.0 11.4 SW 12.1 0.0 0.6
13:42 16.4 12.6 78 1007.2 13.0 S 13.0 0.0 0.6
13:43 16.5 12.3 76 1007.1 9.8 SW 13.0 0.0 0.6
13:44 16.5 12.3 76 1007.1 9.8 SW 13.0 0.0 0.6
13:45 16.5 12.3 76 1007.3 10.7 SW 13.0 0.0 0.6
13:46 16.6 12.4 76 1007.2 10.7 SW 13.0 0.0 0.6
13:47 16.6 12.2 75 1007.1 11.4 SW 13.0 0.0 0.6
13:48 16.6 12.2 75 1007.3 11.4 SW 13.0 0.0 0.6
13:49 16.6 12.2 75 1007.2 7.6 SW 13.0 0.0 0.6
13:50 16.7 12.5 76 1007.2 11.4 SW 13.0 0.0 0.6
13:51 16.7 12.3 75 1007.3 11.4 W 13.0 0.0 0.6
13:52 16.8 12.4 75 1007.5 12.1 SW 12.1 0.0 0.6
13:54 16.7 12.1 74 1007.5 9.2 SW 12.1 0.0 0.6
13:55 16.8 12.1 74 1007.2 10.7 WNW 12.1 0.0 0.6
13:56 16.8 12.1 74 1007.4 12.1 SW 12.1 0.0 0.6
13:57 16.8 12.1 74 1007.6 12.1 SW 12.1 0.0 0.6
13:58 16.8 11.9 73 1007.4 11.4 WSW 12.1 0.0 0.6
13:59 16.9 12.2 74 1007.3 9.8 SW 12.1 0.0 0.6
14:00 16.9 12.2 74 1007.3 9.8 SW 12.1 0.0 0.6
14:01 16.9 12.2 74 1007.5 9.8 SW 12.1 0.0 0.6
14:02 16.9 12.2 74 1007.4 9.8 SW 12.1 0.0 0.6
14:03 16.9 12.2 74 1007.4 9.8 SW 12.1 0.0 0.6
14:04 16.9 12.2 74 1007.4 9.8 SW 12.1 0.0 0.6
14:05 16.9 12.2 74 1007.4 9.8 SW 12.1 0.0 0.6
14:06 16.9 12.2 74 1007.6 10.7 S 12.1 0.0 0.6
14:07 16.9 12.2 74 1007.6 9.8 SW 12.1 0.0 0.6
14:09 16.8 11.9 73 1007.6 9.8 W 10.7 0.0 0.6
14:11 16.8 11.9 73 1007.6 12.1 W 12.1 0.0 0.6
14:12 16.8 11.9 73 1007.5 9.8 SW 12.1 0.0 0.6
14:13 16.8 11.9 73 1007.5 8.3 SW 12.1 0.0 0.6
14:14 16.7 11.8 73 1007.5 13.0 S 13.0 0.0 0.6
14:15 16.7 11.8 73 1007.4 5.4 W 13.0 0.0 0.6
14:16 16.6 11.7 73 1007.4 8.3 SW 13.0 0.0 0.6
14:17 16.6 11.7 73 1007.4 6.0 W 13.0 0.0 0.6
14:18 16.7 12.1 74 1007.6 5.4 NNW 13.0 0.0 0.6
14:19 16.7 12.1 74 1007.5 9.2 WSW 13.0 0.0 0.6
14:20 16.7 12.1 74 1007.4 10.7 W 13.0 0.0 0.6
14:21 16.6 11.7 73 1007.7 7.6 SSW 13.0 0.0 0.6
14:22 16.6 11.7 73 1007.7 6.9 SW 13.0 0.0 0.6
14:23 16.6 11.7 73 1007.8 6.9 SW 13.0 0.0 0.6
14:24 16.6 11.7 73 1007.7 7.6 W 13.0 0.0 0.6
14:25 16.5 11.7 73 1007.6 9.8 S 10.7 0.0 0.6
14:26 16.5 11.7 73 1007.6 9.8 NW 10.7 0.0 0.6
14:27 16.6 11.7 73 1007.6 6.9 W 10.7 0.0 0.6
14:28 16.6 12.0 74 1007.7 8.3 SW 10.7 0.0 0.6
14:29 16.8 12.4 75 1007.4 8.3 SW 10.7 0.0 0.6
14:31 16.9 12.2 74 1007.4 9.2 W 10.7 0.0 0.6
14:32 17.0 12.3 74 1007.3 7.6 NW 10.7 0.0 0.6
14:33 17.0 12.1 73 1007.5 12.1 W 12.1 0.0 0.6
14:34 17.0 12.1 73 1007.6 9.8 W 12.1 0.0 0.6
14:35 17.0 11.9 72 1007.7 9.8 WSW 13.0 0.0 0.6
14:36 17.0 11.9 72 1007.8 9.8 NW 13.0 0.0 0.6
14:37 17.0 11.9 72 1007.8 9.8 NW 13.0 0.0 0.6
14:38 17.1 12.0 72 1007.6 8.3 SW 13.0 0.0 0.6
14:39 17.1 12.0 72 1007.5 11.4 W 13.0 0.0 0.6
14:40 17.1 11.8 71 1007.5 10.7 SW 13.0 0.0 0.6
14:41 17.2 11.9 71 1007.5 7.6 SW 13.0 0.0 0.6
14:42 17.2 12.1 72 1007.6 9.8 SW 13.0 0.0 0.6
14:43 17.2 11.9 71 1007.7 11.4 NW 13.0 0.0 0.6
14:44 17.2 11.9 71 1007.8 9.2 S 13.0 0.0 0.6
14:45 17.3 12.0 71 1007.7 12.1 S 13.0 0.0 0.6
14:46 17.4 12.3 72 1007.6 8.3 WSW 12.1 0.0 0.6
14:47 17.4 12.1 71 1007.6 9.2 SW 12.1 0.0 0.6
14:48 17.4 12.1 71 1007.7 9.2 SW 12.1 0.0 0.6
14:49 17.5 11.5 68 1007.5 10.7 SW 12.1 0.0 0.6
14:50 17.5 11.5 68 1007.6 7.6 SW 12.1 0.0 0.6
14:51 17.6 11.6 68 1007.6 11.4 SW 12.1 0.0 0.6
14:52 17.6 11.4 67 1007.7 13.6 S 13.6 0.0 0.6
14:53 17.7 11.7 68 1007.6 8.3 W 13.6 0.0 0.6
14:54 17.7 11.5 67 1007.7 9.8 WSW 13.6 0.0 0.6
14:56 17.8 11.4 66 1007.8 9.2 WSW 13.6 0.0 0.6
14:57 17.8 11.4 66 1007.7 6.9 SW 13.6 0.0 0.6
14:58 17.9 11.7 67 1007.8 9.8 SW 13.6 0.0 0.6
14:59 18.0 11.8 67 1007.8 9.2 W 13.6 0.0 0.6
15:00 18.0 11.8 67 1007.7 9.2 W 13.6 0.0 0.6
15:01 18.0 11.8 67 1007.7 9.2 W 13.6 0.0 0.6
15:02 18.0 11.8 67 1007.8 9.2 W 10.7 0.0 0.6
15:03 18.0 11.8 67 1007.9 9.2 SW 10.7 0.0 0.6
15:04 18.1 11.7 66 1007.7 7.6 W 10.7 0.0 0.6
15:05 18.2 11.8 66 1007.9 9.2 SW 10.7 0.0 0.6
15:06 18.2 11.8 66 1008.1 11.4 SW 11.4 0.0 0.6
15:07 18.2 11.8 66 1007.9 9.8 WSW 11.4 0.0 0.6
15:08 18.3 11.8 66 1007.9 9.8 WSW 11.4 0.0 0.6
15:09 18.2 11.0 63 1008.0 11.4 SW 11.4 0.0 0.6
15:10 18.2 11.0 63 1007.9 11.4 SW 11.4 0.0 0.6
15:11 18.1 11.0 63 1007.9 10.7 S 11.4 0.0 0.6
15:13 18.1 11.2 64 1008.1 11.4 SW 11.4 0.0 0.6
15:14 18.1 11.2 64 1008.1 10.7 SW 11.4 0.0 0.6
15:15 18.1 11.2 64 1008.1 13.0 SW 13.0 0.0 0.6
15:16 18.1 11.2 64 1008.0 11.4 SW 13.0 0.0 0.6
15:18 18.1 11.2 64 1008.0 10.7 SW 13.0 0.0 0.6
15:19 18.1 11.2 64 1008.1 11.4 SW 13.0 0.0 0.6
15:20 18.1 11.2 64 1007.9 11.4 SW 13.0 0.0 0.6
15:21 18.1 11.2 64 1008.0 8.3 W 13.0 0.0 0.6
15:22 18.2 11.5 65 1008.1 6.0 NW 13.0 0.0 0.6
15:23 18.3 11.4 64 1008.0 12.1 N 13.0 0.0 0.6
15:24 18.3 11.4 64 1008.0 12.1 N 13.0 0.0 0.6
15:25 18.4 11.7 65 1008.1 11.4 SW 13.0 0.0 0.6
15:26 18.4 11.5 64 1008.1 9.8 W 12.1 0.0 0.6
15:27 18.5 11.6 64 1008.1 7.6 SW 12.1 0.0 0.6
15:28 18.5 11.6 64 1008.0 10.7 SW 12.1 0.0 0.6
15:29 18.4 11.2 63 1008.2 11.4 WSW 12.1 0.0 0.6
15:30 18.4 11.2 63 1008.1 13.0 SW 13.0 0.0 0.6
15:31 18.4 11.5 64 1008.0 13.0 W 13.0 0.0 0.6
15:33 18.4 11.2 63 1008.2 13.0 S 13.0 0.0 0.6
15:34 18.5 12.0 66 1008.2 8.3 NE 13.0 0.0 0.6
15:35 18.7 12.0 65 1007.9 10.7 W 13.0 0.0 0.6
15:36 18.8 12.1 65 1008.2 11.4 W 13.0 0.0 0.6
15:37 18.8 11.9 64 1008.1 11.4 W 13.0 0.0 0.6
15:38 18.8 11.9 64 1008.2 6.9 NW 13.0 0.0 0.6
15:39 18.8 11.9 64 1008.0 13.0 W 13.0 0.0 0.6
15:40 18.8 11.4 62 1008.1 12.1 W 13.0 0.0 0.6
15:41 18.7 11.3 62 1008.0 8.3 W 13.0 0.0 0.6
15:42 18.6 11.2 62 1008.1 12.1 NW 13.0 0.0 0.6
15:43 18.6 11.2 62 1008.3 10.7 NE 13.0 0.0 0.6
15:44 18.6 11.4 63 1008.0 8.3 SW 13.0 0.0 0.6
15:45 18.7 11.8 64 1008.1 9.8 SW 13.0 0.0 0.6
15:47 18.6 11.2 62 1008.2 11.4 SW 13.0 0.0 0.6
15:48 18.6 11.2 62 1008.0 9.8 W 13.0 0.0 0.6
15:49 18.5 11.1 62 1008.2 8.3 S 12.1 0.0 0.6
15:50 18.5 11.3 63 1008.2 10.7 SW 12.1 0.0 0.6
15:51 18.6 11.7 64 1008.3 11.4 SW 12.1 0.0 0.6
15:52 18.7 11.8 64 1008.1 10.7 SW 12.1 0.0 0.6
15:53 18.7 11.5 63 1008.1 10.7 SW 12.1 0.0 0.6
15:54 18.7 11.5 63 1008.1 10.7 SW 12.1 0.0 0.6
15:55 18.6 11.4 63 1008.3 9.8 N 12.1 0.0 0.6
15:56 18.6 11.4 63 1008.2 9.8 W 12.1 0.0 0.6
15:57 18.6 11.2 62 1008.3 6.0 SW 12.1 0.0 0.6
15:58 18.5 11.1 62 1008.1 9.8 SW 12.1 0.0 0.6
15:59 18.4 10.8 61 1008.3 9.8 SW 12.1 0.0 0.6
16:00 18.3 10.7 61 1008.2 9.8 SW 12.1 0.0 0.6
16:02 18.3 10.7 61 1008.2 9.8 SW 10.7 0.0 0.6
16:03 18.1 10.5 61 1008.1 6.9 W 10.7 0.0 0.6
16:04 18.0 10.4 61 1008.1 10.7 W 10.7 0.0 0.6
16:05 17.9 10.3 61 1008.1 10.7 W 10.7 0.0 0.6
16:06 17.9 10.3 61 1008.0 8.3 NW 10.7 0.0 0.6
16:07 17.8 10.2 61 1008.0 9.2 W 10.7 0.0 0.6
16:08 17.8 10.2 61 1008.0 9.2 W 10.7 0.0 0.6
16:09 17.8 10.4 62 1008.3 6.9 W 10.7 0.0 0.6
16:10 17.9 10.8 63 1008.2 6.9 NW 10.7 0.0 0.6
16:11 18.0 10.9 63 1008.2 9.2 W 10.7 0.0 0.6
16:12 18.1 10.7 62 1008.2 8.3 WSW 10.7 0.0 0.6
16:13 18.2 10.8 62 1008.3 9.2 W 10.7 0.0 0.6
16:14 18.2 10.8 62 1008.1 7.6 NE 10.7 0.0 0.6
16:15 18.2 10.8 62 1008.4 7.6 NE 10.7 0.0 0.6
16:17 18.3 10.9 62 1008.1 9.2 W 9.8 0.0 0.6
16:18 18.3 10.9 62 1008.3 9.2 W 9.8 0.0 0.6
16:19 18.1 10.5 61 1008.2 9.8 SW 9.8 0.0 0.6
16:20 18.1 10.7 62 1008.2 11.4 SW 11.4 0.0 0.6
16:21 18.1 10.7 62 1008.5 9.8 W 11.4 0.0 0.6
16:22 18.1 10.7 62 1008.4 8.3 SW 11.4 0.0 0.6
16:23 18.2 11.0 63 1008.4 8.3 SW 11.4 0.0 0.6
16:24 18.3 11.4 64 1008.3 11.4 WNW 11.4 0.0 0.6
16:25 18.4 11.2 63 1008.4 14.5 SW 14.5 0.0 0.6
16:26 18.4 11.2 63 1008.4 10.7 SW 14.5 0.0 0.6
16:27 18.4 11.0 62 1008.4 10.7 SW 14.5 0.0 0.6
16:28 18.3 10.7 61 1008.5 12.1 W 14.5 0.0 0.6
16:29 18.2 10.6 61 1008.6 9.2 WSW 14.5 0.0 0.6
16:30 18.2 10.8 62 1008.2 10.7 W 14.5 0.0 0.6
16:31 18.2 10.8 62 1008.3 11.4 N 14.5 0.0 0.6
16:33 18.4 11.2 63 1008.6 9.8 SW 14.5 0.0 0.6
16:34 18.4 11.2 63 1008.5 8.3 SW 14.5 0.0 0.6
16:35 18.4 11.0 62 1008.4 13.6 SW 13.6 0.0 0.7
16:36 18.3 10.9 62 1008.4 13.6 SW 13.6 0.8 0.7
16:37 18.3 10.7 61 1008.5 11.4 S 13.6 0.8 0.7
16:38 18.3 10.7 61 1008.6 12.1 W 13.6 0.8 0.7
16:39 18.3 10.9 62 1008.5 9.2 SW 13.6 0.8 0.7
16:40 18.3 10.9 62 1008.6 13.0 SW 13.6 0.8 0.7
16:41 18.3 10.7 61 1008.5 9.2 WSW 13.6 0.0 0.7
16:42 18.3 10.7 61 1008.4 12.1 SW 13.6 0.0 0.7
16:43 18.2 10.6 61 1008.6 9.8 SW 13.6 0.0 0.7
16:44 18.2 10.6 61 1008.5 9.8 SW 13.6 0.0 0.7
16:45 18.1 10.2 60 1008.6 11.4 W 13.6 0.0 0.7
16:47 18.1 10.2 60 1008.7 9.2 SW 13.0 0.0 0.7
16:48 18.1 10.2 60 1008.6 11.4 W 13.0 0.0 0.7
16:49 18.1 10.5 61 1008.5 8.3 SW 13.0 0.0 0.7
16:50 18.2 10.6 61 1008.5 10.7 NW 12.1 0.0 0.7
16:51 18.2 10.6 61 1008.5 11.4 NE 12.1 0.0 0.7
16:52 18.3 10.7 61 1008.5 10.7 SW 12.1 0.0 0.7
16:53 18.3 10.7 61 1008.5 11.4 W 12.1 0.0 0.7
16:54 18.3 10.7 61 1008.7 11.4 SW 12.1 0.0 0.7
16:55 18.3 10.7 61 1008.6 10.7 W 12.1 0.0 0.7
16:56 18.3 10.7 61 1008.7 6.9 SW 12.1 0.0 0.7
16:57 18.4 10.8 61 1008.7 11.4 SW 12.1 0.0 0.7
16:58 18.3 10.7 61 1008.5 9.8 SW 12.1 0.0 0.7
16:59 18.3 10.7 61 1008.4 11.4 S 12.1 0.0 0.7
17:01 18.3 10.4 60 1008.7 15.2 SW 15.2 0.0 0.7
17:02 18.3 10.4 60 1008.6 15.2 SW 15.2 0.0 0.7
17:03 18.3 10.4 60 1008.6 15.2 SW 15.2 0.0 0.7
17:04 18.3 10.4 60 1008.5 15.2 SW 15.2 0.0 0.7
17:05 18.3 10.4 60 1008.6 15.2 SW 15.2 0.0 0.7
17:06 17.7 10.3 62 1008.4 15.2 SW 15.2 0.0 0.7
17:07 17.8 10.4 62 1008.6 10.7 S 15.2 0.0 0.7
17:08 17.9 10.5 62 1008.7 9.2 SW 15.2 0.0 0.7
17:09 18.0 10.6 62 1008.5 8.3 SW 15.2 0.0 0.7
17:10 18.0 10.6 62 1008.7 6.0 SW 15.2 0.0 0.7
17:11 18.1 10.7 62 1008.8 11.4 SW 15.2 0.0 0.7
17:12 18.0 10.4 61 1008.8 13.6 SSW 15.2 0.0 0.7
17:13 17.9 10.3 61 1008.7 8.3 W 15.2 0.0 0.7
17:14 18.0 10.4 61 1008.6 7.6 SW 15.2 0.0 0.7
17:16 18.1 10.5 61 1008.7 9.8 SW 15.2 0.0 0.7
17:17 18.1 10.2 60 1008.6 13.0 S 14.5 0.0 0.7
17:18 18.1 10.2 60 1008.7 13.6 S 14.5 0.0 0.7
17:19 18.1 9.7 58 1008.7 9.8 SW 13.6 0.0 0.7
17:20 18.0 9.4 57 1008.6 13.6 W 13.6 0.0 0.7
17:22 18.0 9.6 58 1008.6 9.2 NW 13.6 0.0 0.7
17:23 18.1 10.0 59 1008.7 12.1 SW 13.6 0.0 0.7
17:24 18.1 10.2 60 1008.5 10.7 W 13.6 0.0 0.7
17:25 18.1 10.2 60 1008.6 10.7 SSW 13.6 0.0 0.7
17:26 18.1 10.2 60 1008.6 7.6 SW 13.6 0.0 0.7
17:27 18.1 10.2 60 1008.7 8.3 SW 13.6 0.0 0.7
17:28 18.1 10.2 60 1008.7 8.3 SW 13.6 0.0 0.7
17:29 18.1 10.2 60 1008.6 12.1 W 13.6 0.0 0.7
17:30 18.1 10.2 60 1008.5 13.0 SW 13.6 0.0 0.7
17:31 18.1 10.2 60 1008.8 9.8 SW 13.0 0.0 0.7
17:32 18.1 10.2 60 1008.8 10.7 S 13.0 0.0 0.7
17:33 17.9 9.8 59 1008.8 15.2 SW 15.2 0.0 0.7
17:34 17.7 9.3 58 1008.7 15.2 SW 15.2 0.0 0.7
17:35 17.6 9.5 59 1008.8 9.2 SW 15.2 0.0 0.7
17:37 17.3 10.0 62 1008.4 8.3 S 15.2 0.0 0.7
17:38 17.2 10.6 65 1008.6 8.3 SW 15.2 0.0 0.7
17:39 17.3 10.7 65 1008.8 9.8 SW 15.2 0.0 0.7
17:40 17.3 10.9 66 1008.6 9.2 SW 15.2 0.0 0.7
17:41 17.5 10.1 62 1008.7 9.2 W 15.2 0.0 0.7
17:42 17.6 10.2 62 1008.6 9.2 W 15.2 0.0 0.7
17:43 17.6 10.2 62 1008.5 9.2 SW 15.2 0.0 0.7
17:44 17.6 10.0 61 1008.6 9.8 W 15.2 0.0 0.7
17:45 17.5 9.7 60 1008.7 12.1 SW 12.1 0.0 0.7
17:46 17.4 10.3 63 1008.6 12.1 SW 12.1 0.0 0.7
17:47 17.3 10.2 63 1008.7 12.1 NE 12.1 0.0 0.7
17:48 17.3 10.2 63 1008.7 12.1 NE 12.1 0.0 0.7
17:49 17.1 10.0 63 1008.6 8.3 SW 12.1 0.0 0.7
17:51 16.9 9.8 63 1008.5 11.4 W 12.1 0.0 0.7
17:52 16.8 9.7 63 1008.6 9.8 WSW 12.1 0.0 0.7
17:53 16.7 9.9 64 1008.5 8.3 S 12.1 0.0 0.7
17:54 16.7 9.9 64 1008.7 10.7 W 12.1 0.0 0.7
17:55 16.6 9.8 64 1008.7 13.0 S 13.6 0.0 0.7
17:56 16.6 9.8 64 1008.7 13.0 S 13.6 0.0 0.7
17:57 16.6 10.0 65 1008.6 11.4 S 13.6 0.0 0.7
17:58 16.7 10.3 66 1008.3 6.9 W 13.6 0.0 0.7
17:59 16.8 10.6 67 1008.7 10.7 SW 13.6 0.0 0.7
18:00 17.0 11.1 68 1008.5 10.7 SW 13.6 0.0 0.7
18:01 17.0 11.1 68 1008.7 10.7 SW 13.6 0.0 0.7
18:02 17.0 11.1 68 1008.6 10.7 SW 13.6 0.0 0.7
18:03 17.0 11.1 68 1008.5 10.7 SW 13.6 0.0 0.7
18:04 17.0 11.1 68 1008.6 10.7 SW 13.6 0.0 0.7
18:06 16.9 10.1 64 1008.6 16.8 S 16.8 0.0 0.7
18:07 16.7 9.9 64 1008.5 11.4 SW 16.8 0.0 0.7
18:08 16.6 9.8 64 1008.5 11.4 SE 16.8 0.0 0.7
18:09 16.6 10.0 65 1008.5 14.5 SW 16.8 0.0 0.7
18:10 16.6 10.2 66 1008.5 14.5 W 16.8 0.0 0.7
18:11 16.6 10.2 66 1008.8 9.8 SW 16.8 0.0 0.7
18:12 16.6 10.2 66 1008.8 9.8 SW 16.8 0.0 0.7
18:13 16.8 10.9 68 1008.5 10.7 W 16.8 0.0 0.7
18:14 17.0 11.1 68 1008.7 9.2 SW 16.8 0.0 0.7
18:15 17.1 11.4 69 1008.7 12.1 SW 16.8 0.0 0.7
18:16 17.2 11.5 69 1008.5 12.1 SW 16.8 0.0 0.7
18:17 17.3 11.6 69 1008.6 10.7 W 14.5 0.0 0.7
18:18 17.3 11.1 67 1008.7 12.1 W 14.5 0.0 0.7
18:20 17.0 10.8 67 1008.4 9.8 S 12.1 0.0 0.7
18:21 16.9 10.7 67 1008.6 12.1 SW 12.1 0.0 0.7
18:22 16.8 10.6 67 1008.6 12.1 SW 12.1 0.0 0.7
18:23 16.6 10.7 68 1008.7 11.4 S 12.1 0.0 0.7
18:24 16.5 10.8 69 1008.8 9.8 SW 12.1 0.0 0.7
18:25 16.5 10.8 69 1008.9 9.2 SW 12.1 0.0 0.7
18:26 16.5 11.0 70 1008.7 10.7 SW 12.1 0.0 0.7
18:27 16.6 11.1 70 1008.8 10.7 SSW 12.1 0.0 0.7
18:28 16.6 11.3 71 1008.7 15.2 S 15.2 0.0 0.7
18:29 16.6 11.1 70 1008.7 15.2 SW 15.2 0.0 0.7
18:30 16.5 11.0 70 1008.8 13.6 SW 15.2 0.0 0.7
18:31 16.4 10.9 70 1008.9 12.1 S 15.2 0.0 0.7
18:32 16.3 10.8 70 1008.9 12.1 SW 15.2 0.0 0.7
18:33 16.2 10.7 70 1008.8 14.5 S 15.2 0.0 0.7
18:35 16.1 10.6 70 1008.6 12.1 SW 15.2 0.0 0.7
18:36 16.0 10.5 70 1008.7 10.7 SW 15.2 0.0 0.7
18:37 16.0 10.5 70 1008.7 10.7 SW 15.2 0.0 0.7
18:38 15.9 10.4 70 1008.7 11.4 SE 15.2 0.0 0.7
18:39 15.9 10.4 70 1008.7 10.7 SW 15.2 0.0 0.7
18:40 15.9 10.4 70 1008.7 10.7 SW 14.5 0.0 0.7
18:41 15.7 10.5 71 1008.7 6.9 S 14.5 0.0 0.7
18:42 15.7 10.5 71 1008.6 9.2 SE 14.5 0.0 0.7
18:43 15.7 10.5 71 1008.9 9.2 SE 14.5 0.0 0.7
18:44 15.7 10.5 71 1008.7 12.1 SW 12.1 0.0 0.7
18:45 15.7 10.7 72 1008.7 10.7 S 13.6 0.0 0.7
18:46 15.7 10.7 72 1008.7 9.2 SW 13.6 0.0 0.7
18:47 15.7 10.7 72 1008.6 9.8 SSW 13.6 0.0 0.7
18:49 15.7 10.7 72 1009.0 13.0 SW 13.6 0.0 0.7
18:50 15.7 10.7 72 1008.9 13.0 SW 13.6 0.0 0.7
18:51 15.6 10.6 72 1008.9 8.3 SW 13.6 0.0 0.7
18:52 15.6 10.4 71 1008.7 9.2 SW 13.6 0.0 0.7
18:53 15.6 10.4 71 1008.6 9.2 SW 13.6 0.0 0.7
18:54 15.6 10.4 71 1008.9 9.8 SW 13.6 0.0 0.7
18:55 15.6 10.4 71 1008.8 10.7 WSW 13.0 0.0 0.7
18:56 15.6 10.6 72 1008.9 11.4 S 13.0 0.0 0.7
18:57 15.6 10.6 72 1008.7 10.7 SW 13.0 0.0 0.7
18:58 15.7 10.7 72 1008.8 12.1 SW 13.0 0.0 0.7
18:59 15.8 11.0 73 1008.9 8.3 SW 13.0 0.0 0.7
19:00 15.8 11.0 73 1008.7 8.3 SW 13.0 0.0 0.7
19:01 15.8 11.0 73 1008.9 8.3 SW 12.1 0.0 0.7
19:03 16.3 11.3 72 1008.8 9.2 S 12.1 0.0 0.7
19:04 16.2 10.9 71 1009.0 10.7 WSW 12.1 0.0 0.7
19:05 16.2 10.9 71 1008.9 6.9 WSW 12.1 0.0 0.7
19:06 16.2 10.9 71 1008.9 8.3 S 12.1 0.0 0.7
19:07 16.1 10.8 71 1009.0 11.4 SW 12.1 0.0 0.7
19:08 16.1 10.8 71 1009.0 13.0 SW 13.0 0.0 0.7
19:09 16.0 10.8 71 1008.8 11.4 SW 13.0 0.0 0.7
19:10 16.0 10.5 70 1008.9 7.6 SW 13.0 0.0 0.7
19:11 16.0 10.5 70 1008.9 8.3 SW 13.0 0.0 0.7
19:12 15.9 10.4 70 1009.0 8.3 SW 13.0 0.0 0.7
19:13 15.9 10.4 70 1008.9 11.4 SW 13.0 0.0 0.7
19:14 15.8 10.3 70 1009.0 11.4 S 13.0 0.0 0.7
19:15 15.8 10.6 71 1008.9 9.8 SW 13.0 0.0 0.7
19:16 15.8 10.6 71 1008.9 9.8 SW 13.0 0.0 0.7
19:17 15.9 10.7 71 1009.0 11.4 WSW 13.0 0.0 0.7
19:18 16.0 10.8 71 1008.9 12.1 SW 13.0 0.0 0.7
19:19 16.0 10.5 70 1008.8 8.3 SW 12.1 0.0 0.7
19:20 16.1 10.6 70 1008.9 9.2 SW 12.1 0.0 0.7
19:21 16.1 10.8 71 1009.0 9.8 SW 12.1 0.0 0.7
19:22 16.2 10.9 71 1009.0 13.0 NNW 13.0 0.0 0.7
19:23 16.2 10.7 70 1008.8 14.5 SW 14.5 0.0 0.7
19:24 16.2 10.7 70 1008.8 14.5 SW 14.5 0.0 0.7
19:25 16.2 10.7 70 1009.0 14.5 SW 15.2 0.0 0.7
19:26 16.1 10.6 70 1008.6 11.4 SW 15.2 0.0 0.7
19:27 16.1 10.6 70 1009.0 11.4 S 15.2 0.0 0.7
19:28 16.0 10.5 70 1008.9 9.8 S 15.2 0.0 0.7
19:29 15.9 10.4 70 1008.9 9.2 SW 15.2 0.0 0.7
19:31 15.8 10.3 70 1008.9 9.8 W 15.2 0.0 0.7
19:32 15.8 10.3 70 1009.2 11.4 S 15.2 0.0 0.7
19:33 15.7 10.3 70 1008.9 9.8 SW 15.2 0.0 0.7
19:34 15.7 10.3 70 1008.6 8.3 SW 15.2 0.0 0.7
19:35 15.6 10.2 70 1008.8 9.8 SW 11.4 0.0 0.7
19:36 15.6 10.2 70 1008.8 9.8 SW 11.4 0.0 0.7
19:37 15.6 10.2 70 1009.0 9.8 S 11.4 0.0 0.7
19:38 15.5 10.1 70 1009.1 11.4 S 11.4 0.0 0.7
19:39 15.5 10.1 70 1008.9 10.7 SW 11.4 0.0 0.7
19:40 15.4 10.0 70 1009.0 9.2 SW 11.4 0.0 0.7
19:41 15.4 10.2 71 1009.0 9.2 SSW 11.4 0.0 0.7
19:42 15.3 10.1 71 1008.9 7.6 SW 11.4 0.0 0.7
19:43 15.3 10.1 71 1008.8 8.3 SW 11.4 0.0 0.7
19:45 15.2 10.0 71 1008.8 6.0 W 11.4 0.0 0.7
19:46 15.2 10.0 71 1008.9 5.4 WSW 11.4 0.0 0.7
19:47 15.2 10.0 71 1008.9 6.0 SW 11.4 0.0 0.7
19:48 15.2 10.0 71 1009.1 6.0 SW 10.7 0.0 0.7
19:49 15.2 10.2 72 1008.8 7.6 N 9.2 0.0 0.7
19:50 15.1 10.1 72 1009.1 7.6 SW 9.2 0.0 0.7
19:51 15.1 10.1 72 1009.0 10.7 S 10.7 0.0 0.7
19:52 15.1 10.1 72 1008.9 13.0 S 13.0 0.0 0.7
19:53 15.1 10.1 72 1009.0 9.8 S 13.0 0.0 0.7
19:54 15.1 10.1 72 1008.8 9.8 SW 13.0 0.0 0.7
19:55 15.1 10.1 72 1008.8 8.3 W 13.0 0.0 0.7
19:56 15.1 10.1 72 1008.8 6.9 W 13.0 0.0 0.7
19:57 15.1 10.1 72 1009.0 6.9 W 13.0 0.0 0.7
19:59 15.0 10.0 72 1009.0 9.8 S 13.0 0.0 0.7
20:00 15.0 10.0 72 1009.0 9.8 S 13.0 0.0 0.7
20:01 15.0 10.0 72 1009.0 9.8 S 13.0 0.0 0.7
20:02 15.0 10.0 72 1009.0 9.8 S 10.7 0.0 0.7
20:03 15.0 10.0 72 1009.1 12.1 SE 12.1 0.0 0.7
20:04 14.9 9.9 72 1009.1 7.6 S 12.1 0.0 0.7
20:05 14.9 9.9 72 1009.1 9.8 S 12.1 0.0 0.7
20:06 14.9 9.9 72 1009.1 9.8 S 12.1 0.0 0.7
20:07 14.9 9.9 72 1009.0 8.3 SW 12.1 0.0 0.7
20:08 14.8 9.8 72 1009.0 8.3 SW 12.1 0.0 0.7
20:09 14.8 9.8 72 1009.4 11.4 SW 12.1 0.0 0.7
20:10 14.8 9.8 72 1009.0 6.9 SW 12.1 0.0 0.7
20:11 14.8 9.8 72 1009.1 9.2 SW 12.1 0.0 0.7
20:12 14.7 9.7 72 1009.1 7.6 SW 12.1 0.0 0.7
20:14 14.7 9.7 72 1009.1 7.6 SW 11.4 0.0 0.7
20:15 14.7 9.7 72 1009.1 9.2 SW 11.4 0.0 0.7
20:16 14.7 9.7 72 1009.2 9.2 SW 11.4 0.0 0.7
20:17 14.7 9.7 72 1009.1 9.2 SW 11.4 0.0 0.7
20:18 14.7 9.7 72 1009.1 9.2 SW 11.4 0.0 0.7
20:19 14.6 9.6 72 1009.2 9.2 W 11.4 0.0 0.7
20:20 14.6 9.6 72 1009.2 9.2 W 9.2 0.0 0.7
20:21 14.6 9.6 72 1009.1 12.1 W 12.1 0.0 0.7
20:22 14.6 9.6 72 1009.0 9.8 SW 12.1 0.0 0.7
20:23 14.6 9.6 72 1009.1 9.8 SW 12.1 0.0 0.7
20:24 14.6 9.6 72 1009.2 9.2 SW 12.1 0.0 0.7
20:25 14.5 9.7 73 1009.2 13.0 S 13.0 0.0 0.7
20:26 14.5 9.7 73 1009.1 13.0 S 13.0 0.0 0.7
20:27 14.5 9.7 73 1009.0 8.3 S 13.0 0.0 0.7
20:29 14.5 9.7 73 1009.1 9.2 SW 13.0 0.0 0.7
20:30 14.5 9.7 73 1009.0 7.6 SW 13.0 0.0 0.7
20:31 14.4 9.6 73 1009.2 7.6 SW 13.0 0.0 0.7
20:32 14.4 9.6 73 1009.2 7.6 SW 13.0 0.0 0.7
20:33 14.4 9.6 73 1009.1 11.4 S 13.0 0.0 0.7
20:34 14.4 9.6 73 1009.2 11.4 S 13.0 0.0 0.7
20:35 14.4 9.6 73 1009.1 7.6 SW 13.0 0.0 0.7
20:36 14.4 9.6 73 1009.3 7.6 S 13.0 0.0 0.7
20:37 14.4 9.6 73 1009.1 6.9 S 11.4 0.0 0.7
20:38 14.3 9.5 73 1009.2 9.8 SW 11.4 0.0 0.7
20:39 14.3 9.7 74 1009.2 7.6 SW 11.4 0.0 0.7
20:40 14.3 9.7 74 1009.4 7.6 SW 11.4 0.0 0.7
20:41 14.3 9.7 74 1009.2 8.3 S 11.4 0.0 0.7
20:43 14.3 9.7 74 1009.3 6.0 W 11.4 0.0 0.7
20:44 14.3 9.7 74 1009.2 10.7 SW 10.7 0.0 0.7
20:45 14.3 9.7 74 1009.3 11.4 SW 11.4 0.0 0.7
20:46 14.3 9.7 74 1009.5 11.4 SW 11.4 0.0 0.7
20:47 14.3 9.9 75 1009.2 11.4 SW 11.4 0.0 0.7
20:48 14.3 9.9 75 1009.1 6.9 S 11.4 0.0 0.7
20:49 14.3 9.9 75 1009.3 8.3 S 11.4 0.0 0.7
20:50 14.3 9.9 75 1009.3 7.6 SW 11.4 0.0 0.7
20:51 14.3 9.9 75 1009.4 9.2 SW 11.4 0.0 0.7
20:52 14.2 9.8 75 1009.4 10.7 S 11.4 0.0 0.7
20:53 14.2 9.8 75 1009.4 9.2 S 12.1 0.0 0.7
20:54 14.2 9.8 75 1009.5 8.3 S 12.1 0.0 0.7
20:55 14.2 9.8 75 1009.5 9.8 S 12.1 0.0 0.7
20:56 14.2 9.8 75 1009.4 8.3 S 12.1 0.0 0.7
20:58 14.2 10.0 76 1009.4 11.4 SW 12.1 0.0 0.7
20:59 14.2 10.0 76 1009.2 7.6 SW 12.1 0.0 0.7
21:00 14.2 10.0 76 1009.1 7.6 SW 12.1 0.0 0.7
21:01 14.2 10.0 76 1009.2 7.6 SW 12.1 0.0 0.7
21:02 14.2 10.0 76 1009.3 7.6 SW 12.1 0.0 0.7
21:03 14.2 10.0 76 1009.2 7.6 SW 11.4 0.0 0.7
21:04 14.2 10.0 76 1009.2 7.6 SW 11.4 0.0 0.7
21:05 14.2 10.0 76 1009.2 7.6 SW 11.4 0.0 0.7
21:06 14.2 10.0 76 1009.2 7.6 SW 11.4 0.0 0.7
21:07 14.2 10.0 76 1009.2 7.6 SW 11.4 0.0 0.7
21:08 14.1 10.1 77 1009.3 12.1 N 12.1 0.0 0.7
21:09 14.1 10.1 77 1009.2 7.6 SW 12.1 0.0 0.7
21:10 14.1 10.1 77 1009.5 8.3 SW 12.1 0.0 0.7
21:11 14.1 10.1 77 1009.3 8.3 SW 12.1 0.0 0.7
21:13 14.1 10.1 77 1009.4 10.7 SW 12.1 0.0 0.7
21:14 14.1 10.1 77 1009.5 13.6 SW 13.6 0.0 0.7
21:15 14.1 10.1 77 1009.3 11.4 WSW 13.6 0.0 0.7
21:16 14.1 10.1 77 1009.3 10.7 SW 13.6 0.0 0.7
21:17 14.1 10.3 78 1009.3 12.1 SW 13.6 0.0 0.7
21:19 14.0 10.2 78 1009.3 7.6 S 13.6 0.0 0.7
21:20 14.0 10.2 78 1009.2 7.6 S 13.6 0.0 0.7
21:21 14.0 10.2 78 1009.2 9.2 SW 13.6 0.0 0.7
21:22 14.0 10.2 78 1009.3 8.3 SW 13.6 0.0 0.7
21:24 14.0 10.2 78 1009.2 6.0 SW 13.6 0.0 0.7
21:25 14.0 10.2 78 1009.3 9.8 S 12.1 0.0 0.7
21:26 14.0 10.2 78 1009.6 7.6 SW 12.1 0.0 0.7
21:27 14.0 10.2 78 1009.4 6.9 SW 12.1 0.0 0.7
21:28 14.0 10.2 78 1009.3 11.4 SW 11.4 0.0 0.7
21:29 14.0 10.2 78 1009.5 9.8 SW 11.4 0.0 0.7
21:30 14.0 10.4 79 1009.3 10.7 SW 11.4 0.0 0.7
21:31 14.0 10.4 79 1009.4 7.6 SW 11.4 0.0 0.7
21:32 14.0 10.4 79 1009.3 8.3 S 11.4 0.0 0.7
21:33 14.0 10.4 79 1009.5 9.2 SW 11.4 0.0 0.7
21:34 14.0 10.4 79 1009.4 9.2 S 11.4 0.0 0.7
21:35 14.0 10.4 79 1009.5 11.4 SW 11.4 0.0 0.7
21:36 14.0 10.4 79 1009.2 8.3 S 11.4 0.0 0.7
21:37 14.0 10.4 79 1009.5 9.2 SW 11.4 0.0 0.7
21:38 14.0 10.4 79 1009.2 9.2 SW 11.4 0.0 0.7
21:39 13.9 10.3 79 1009.5 9.8 SW 11.4 0.0 0.7
21:41 13.9 10.3 79 1009.4 10.7 SW 11.4 0.0 0.7
21:42 13.9 10.3 79 1009.3 7.6 SW 11.4 0.0 0.7
21:43 13.9 10.3 79 1009.5 11.4 SW 11.4 0.0 0.7
21:44 13.9 10.3 79 1009.5 7.6 S 11.4 0.0 0.7
21:45 13.9 10.3 79 1009.4 11.4 SW 11.4 0.0 0.7
21:46 13.9 10.3 79 1009.4 10.7 SW 11.4 0.0 0.7
21:47 13.9 10.3 79 1009.7 9.2 SW 11.4 0.0 0.7
21:48 13.9 10.3 79 1009.4 9.2 SW 11.4 0.0 0.7
21:49 13.9 10.5 80 1009.7 7.6 SW 11.4 0.0 0.7
21:50 13.9 10.5 80 1009.7 7.6 SW 11.4 0.0 0.7
21:51 13.9 10.5 80 1009.6 8.3 S 11.4 0.0 0.7
21:52 13.9 10.5 80 1009.7 8.3 S 11.4 0.0 0.7
21:53 13.9 10.5 80 1009.5 6.0 SW 11.4 0.0 0.7
21:54 13.8 10.4 80 1009.6 5.4 SE 11.4 0.0 0.7
21:56 13.8 10.4 80 1009.7 12.1 SW 12.1 1.5 0.8
21:57 13.8 10.4 80 1009.5 12.1 SW 12.1 1.5 0.8
21:58 13.8 10.4 80 1009.6 8.3 S 12.1 2.3 0.9
21:59 13.7 10.3 80 1009.6 11.4 SW 12.1 2.3 0.9
22:00 13.7 10.3 80 1009.6 9.2 SW 12.1 1.5 0.9
22:01 13.7 10.3 80 1009.6 9.2 W 12.1 0.8 0.9
22:02 13.7 10.3 80 1009.7 7.6 S 12.1 0.8 0.9
22:03 13.7 10.3 80 1009.7 8.3 SW 12.1 0.0 0.9
22:04 13.7 10.3 80 1009.8 9.8 SW 12.1 0.0 0.9
22:05 13.7 10.3 80 1009.7 6.9 SSW 12.1 0.0 0.9
22:06 13.6 10.4 81 1009.8 8.3 S 12.1 0.0 0.9
22:07 13.6 10.4 81 1009.6 8.3 W 12.1 0.0 0.9
22:08 13.6 10.4 81 1009.6 7.6 W 11.4 0.0 0.9
22:09 13.6 10.4 81 1009.8 10.7 SW 11.4 0.0 0.9
22:11 13.5 10.3 81 1009.9 10.7 W 10.7 0.0 0.9
22:12 13.5 10.3 81 1009.8 7.6 SW 10.7 0.0 0.9
22:13 13.5 10.3 81 1009.7 7.6 SW 10.7 0.0 0.9
22:14 13.5 10.3 81 1009.7 8.3 SW 10.7 0.0 0.9
22:15 13.5 10.3 81 1009.7 11.4 S 11.4 0.0 0.9
22:16 13.5 10.3 81 1009.7 11.4 S 11.4 0.0 0.9
22:17 13.4 10.2 81 1009.6 7.6 SW 11.4 0.0 0.9
22:18 13.4 10.2 81 1009.8 9.2 SW 11.4 0.0 0.9
22:19 13.4 10.2 81 1009.8 9.8 SW 11.4 0.0 0.9
22:20 13.4 10.2 81 1009.7 8.3 SW 11.4 0.0 0.9
22:21 13.4 10.2 81 1009.7 7.6 SW 11.4 0.0 0.9
22:22 13.4 10.2 81 1010.0 8.3 SW 11.4 0.0 0.9
22:23 13.3 10.1 81 1009.8 7.6 W 11.4 0.0 0.9
22:24 13.3 10.1 81 1009.9 6.9 SW 11.4 0.0 0.9
22:26 13.3 10.1 81 1009.7 8.3 SW 10.7 0.0 0.9
22:27 13.3 10.1 81 1010.0 7.6 SW 10.7 0.0 0.9
22:28 13.3 10.1 81 1009.8 8.3 W 10.7 0.0 0.9
22:29 13.3 10.1 81 1009.8 9.2 SW 10.7 0.0 0.9
22:30 13.3 10.1 81 1009.9 9.2 SW 10.7 0.0 0.9
22:31 13.3 10.3 82 1009.8 8.3 SW 10.7 0.0 0.9
22:32 13.3 10.3 82 1009.8 8.3 SW 10.7 0.0 0.9
22:33 13.3 10.3 82 1009.8 9.2 WSW 10.7 0.0 0.9
22:34 13.3 10.3 82 1009.8 8.3 SW 10.7 0.0 0.9
22:35 13.3 10.3 82 1009.9 8.3 SW 10.7 0.0 0.9
22:36 13.3 10.3 82 1009.8 6.0 SW 9.2 0.0 0.9
22:37 13.2 10.2 82 1009.9 6.0 SW 9.2 0.0 0.9
22:38 13.2 10.2 82 1010.0 5.4 SW 9.2 0.0 0.9
22:39 13.2 10.2 82 1010.0 8.3 SW 9.2 0.0 0.9
22:41 13.2 10.2 82 1010.0 8.3 SW 9.2 0.0 0.9
22:42 13.2 10.2 82 1010.1 7.6 SW 9.2 0.0 0.9
22:43 13.2 10.2 82 1010.1 5.4 SW 9.2 0.0 0.9
22:44 13.2 10.2 82 1009.8 9.2 W 9.2 0.0 0.9
22:45 13.2 10.2 82 1009.9 9.2 SW 9.2 0.0 0.9
22:46 13.2 10.2 82 1009.9 7.6 SW 9.2 0.0 0.9
22:47 13.2 10.2 82 1009.9 8.3 W 9.2 0.0 0.9
22:48 13.2 10.2 82 1010.0 8.3 SW 9.2 0.0 0.9
22:49 13.2 10.2 82 1010.0 6.9 SW 9.2 0.0 0.9
22:50 13.2 10.2 82 1010.0 6.9 SW 9.2 0.0 0.9
22:51 13.2 10.2 82 1009.8 6.9 SSW 9.2 0.0 0.9
22:52 13.2 10.2 82 1009.8 9.8 W 9.8 0.0 0.9
22:53 13.2 10.2 82 1009.9 8.3 SW 9.8 0.0 0.9
22:54 13.2 10.2 82 1010.0 7.6 W 9.8 0.0 0.9
22:55 13.2 10.2 82 1009.9 7.6 SW 9.8 0.0 0.9
22:56 13.2 10.2 82 1009.9 8.3 WSW 9.8 0.0 0.9
22:57 13.2 10.2 82 1009.9 6.9 SW 9.8 0.0 0.9
22:58 13.2 10.2 82 1009.8 6.9 SW 9.8 0.0 0.9
22:59 13.2 10.4 83 1010.1 6.9 SW 9.8 0.0 0.9
23:00 13.2 10.4 83 1010.0 6.9 SW 9.8 0.0 0.9
23:01 13.2 10.4 83 1009.9 6.9 SW 9.8 0.0 0.9
23:02 13.2 10.4 83 1010.0 6.9 SW 9.8 0.0 0.9
23:03 13.2 10.4 83 1009.9 6.9 SW 9.8 0.0 0.9
23:04 13.2 10.4 83 1010.0 6.9 SW 9.8 0.0 0.9
23:05 13.2 10.4 83 1010.1 6.9 SW 9.8 0.0 0.9
23:06 13.2 10.4 83 1009.9 6.9 SW 9.8 0.0 0.9
23:07 13.2 10.4 83 1010.0 5.4 SW 8.3 0.0 0.9
23:08 13.2 10.4 83 1010.0 7.6 W 8.3 0.0 0.9
23:09 13.2 10.4 83 1010.0 5.4 SW 8.3 0.0 0.9
23:11 13.1 10.3 83 1009.9 6.9 W 7.6 0.0 0.9
23:12 13.1 10.3 83 1010.2 6.9 S 7.6 0.0 0.9
23:13 13.1 10.3 83 1010.0 7.6 SSW 7.6 0.0 0.9
23:14 13.1 10.3 83 1010.0 9.8 SW 9.8 0.0 0.9
23:15 13.1 10.3 83 1010.1 8.3 W 9.8 0.0 0.9
23:16 13.1 10.3 83 1010.2 8.3 W 9.8 0.0 0.9
23:17 13.1 10.3 83 1010.0 9.8 W 9.8 0.0 0.9
23:18 13.1 10.3 83 1010.0 9.8 SW 9.8 0.0 0.9
23:19 13.1 10.3 83 1010.2 11.4 W 11.4 0.0 0.9
23:20 13.1 10.3 83 1010.2 11.4 W 11.4 0.0 0.9
23:22 13.1 10.3 83 1010.0 11.4 W 11.4 0.0 0.9
23:24 13.1 10.3 83 1010.0 10.7 S 11.4 0.0 0.9
23:25 13.1 10.3 83 1010.2 10.7 S 11.4 0.0 0.9
23:26 13.1 10.3 83 1010.1 9.2 SW 11.4 0.0 0.9
23:27 13.0 10.2 83 1010.3 8.3 SW 11.4 0.0 0.9
23:28 13.0 10.2 83 1010.1 8.3 SW 11.4 0.0 0.9
23:29 13.0 10.2 83 1010.1 9.2 SW 11.4 0.0 0.9
23:30 13.0 10.2 83 1010.1 9.8 SW 11.4 0.0 0.9
23:31 13.0 10.2 83 1010.3 7.6 W 11.4 0.0 0.9
23:32 13.0 10.2 83 1010.2 7.6 S 11.4 0.0 0.9
23:33 13.0 10.2 83 1010.1 7.6 SW 11.4 0.0 0.9
23:34 12.9 10.1 83 1010.3 6.9 SW 10.7 0.0 0.9
23:35 12.9 9.9 82 1009.9 6.9 SW 10.7 0.0 0.9
23:36 12.9 9.9 82 1010.0 7.6 SW 9.8 0.0 0.9
23:37 12.8 9.8 82 1010.1 6.9 S 9.8 0.0 0.9
23:38 12.8 9.8 82 1010.1 5.4 S 9.8 0.0 0.9
23:39 12.8 9.8 82 1010.0 5.4 S 9.8 0.0 0.9
23:41 12.7 9.7 82 1010.1 6.0 SW 8.3 0.0 0.9
23:42 12.7 9.7 82 1010.0 6.0 SW 8.3 0.0 0.9
23:43 12.7 9.7 82 1009.9 6.9 SW 8.3 0.0 0.9
23:44 12.7 9.7 82 1010.1 6.9 S 8.3 0.0 0.9
23:45 12.7 9.7 82 1010.0 6.0 SW 8.3 0.0 0.9
23:46 12.7 9.7 82 1010.0 6.9 S 8.3 0.0 0.9
23:47 12.6 9.6 82 1010.0 6.0 S 8.3 0.0 0.9
23:48 12.6 9.6 82 1010.1 6.0 S 8.3 0.0 0.9
23:49 12.6 9.6 82 1010.2 7.6 SW 8.3 0.0 0.9
23:50 12.6 9.6 82 1010.0 6.9 SW 8.3 0.0 0.9
23:51 12.6 9.6 82 1010.3 6.9 SW 7.6 0.0 0.9
23:52 12.6 9.6 82 1010.1 5.4 SW 7.6 0.0 0.9
23:53 12.6 9.6 82 1010.0 5.4 SW 7.6 0.0 0.9
23:54 12.6 9.6 82 1009.9 6.9 WSW 7.6 0.0 0.9
23:55 12.6 9.6 82 1010.2 6.9 WSW 7.6 0.0 0.9
23:57 12.6 9.6 82 1010.1 6.0 SW 7.6 0.0 0.9
23:58 12.6 9.6 82 1010.3 6.0 SW 7.6 0.0 0.9
23:59 12.6 9.6 82 1010.0 3.8 SW 7.6 0.0 0.9

 

 

UK - WEATHER STATION TOPSITES - UK World Weather Websites

Copyright © Carnkie Weather 2009 - 2020.